Observation data for Hefner on 01/13/2021      Previous  Date  Next       Current Mesonet Observations  Soil Data  Daily Summary Page  Observations in Plain Language
KHE1 130600Z 21009KT 00/M01 A302 RMK A01 T00031012  RH  089%=      5-min Rain = 0
KHE1 130601Z 21009KT 00/M01 A302 RMK A01 T00031012  RH  089%=      5-min Rain = 0
KHE1 130602Z 22009KT 00/M01 A302 RMK A01 T00031012  RH  090%=      5-min Rain = 0
KHE1 130603Z 22009KT 00/M01 A302 RMK A01 T00031012  RH  090%=      5-min Rain = 0
KHE1 130604Z 22009KT 00/M01 A302 RMK A01 T00031012  RH  090%=      5-min Rain = 0
KHE1 130605Z 22009KT 00/M01 A302 RMK A01 T00031012  RH  090%=      5-min Rain = 0
KHE1 130606Z 22010KT 00/M01 A3019 RMK A01 T00041012  RH  090%=      5-min Rain = 0
KHE1 130607Z 22010KT 00/M01 A3019 RMK A01 T00041012  RH  089%=      5-min Rain = 0
KHE1 130608Z 22010KT 00/M01 A3019 RMK A01 T00041012  RH  089%=      5-min Rain = 0
KHE1 130609Z 22009KT 00/M01 A3019 RMK A01 T00041012  RH  089%=      5-min Rain = 0
KHE1 130610Z 22009KT 00/M01 A3019 RMK A01 T00041012  RH  089%=      5-min Rain = 0
KHE1 130611Z 22009KT 00/M01 A3019 RMK A01 T00041012  RH  089%=      5-min Rain = 0
KHE1 130612Z 22010KT 01/M01 A3019 RMK A01 T00051012  RH  089%=      5-min Rain = 0
KHE1 130613Z 22010KT 01/M01 A3019 RMK A01 T00051012  RH  089%=      5-min Rain = 0
KHE1 130614Z 22010KT 01/M01 A3019 RMK A01 T00051012  RH  089%=      5-min Rain = 0
KHE1 130615Z 22010KT 01/M01 A3019 RMK A01 T00051012  RH  089%=      5-min Rain = 0
KHE1 130616Z 22011KT 01/M01 A3019 RMK A01 T00051012  RH  088%=      5-min Rain = 0
KHE1 130617Z 22010KT 01/M01 A3019 RMK A01 T00051012  RH  088%=      5-min Rain = 0
KHE1 130618Z 22010KT 01/M01 A3019 RMK A01 T00061012  RH  088%=      5-min Rain = 0
KHE1 130619Z 22010KT 01/M01 A3019 RMK A01 T00061012  RH  088%=      5-min Rain = 0
KHE1 130620Z 22010KT 01/M01 A3019 RMK A01 T00061012  RH  088%=      5-min Rain = 0
KHE1 130621Z 22010KT 01/M01 A3019 RMK A01 T00061012  RH  088%=      5-min Rain = 0
KHE1 130622Z 22011KT 01/M01 A3019 RMK A01 T00061012  RH  088%=      5-min Rain = 0
KHE1 130623Z 22011KT 01/M01 A3019 RMK A01 T00061012  RH  088%=      5-min Rain = 0
KHE1 130624Z 22012KT 01/M01 A3019 RMK A01 T00061012  RH  088%=      5-min Rain = 0
KHE1 130625Z 22011KT 01/M01 A3019 RMK A01 T00071012  RH  087%=      5-min Rain = 0
KHE1 130626Z 22011KT 01/M01 A3019 RMK A01 T00071012  RH  087%=      5-min Rain = 0
KHE1 130627Z 22011KT 01/M01 A3019 RMK A01 T00071012  RH  087%=      5-min Rain = 0
KHE1 130628Z 22011KT 01/M01 A3019 RMK A01 T00071012  RH  087%=      5-min Rain = 0
KHE1 130629Z 22011KT 01/M01 A3019 RMK A01 T00071012  RH  087%=      5-min Rain = 0
KHE1 130630Z 22011KT 01/M01 A3019 RMK A01 T00071012  RH  087%=      5-min Rain = 0
KHE1 130631Z 22011KT 01/M01 A3019 RMK A01 T00071012  RH  087%=      5-min Rain = 0
KHE1 130632Z 22011KT 01/M01 A3019 RMK A01 T00071012  RH  087%=      5-min Rain = 0
KHE1 130633Z 22010KT 01/M01 A3019 RMK A01 T00071012  RH  087%=      5-min Rain = 0
KHE1 130634Z 22010KT 01/M01 A3019 RMK A01 T00071012  RH  087%=      5-min Rain = 0
KHE1 130635Z 22011KT 01/M01 A3019 RMK A01 T00071013  RH  087%=      5-min Rain = 0
KHE1 130636Z 22011KT 01/M01 A3018 RMK A01 T00071012  RH  087%=      5-min Rain = 0
KHE1 130637Z 22010KT 01/M01 A3018 RMK A01 T00071013  RH  087%=      5-min Rain = 0
KHE1 130638Z 22011KT 01/M01 A3018 RMK A01 T00071012  RH  087%=      5-min Rain = 0
KHE1 130639Z 22011KT 01/M01 A3018 RMK A01 T00071013  RH  087%=      5-min Rain = 0
KHE1 130640Z 22011KT 01/M01 A3018 RMK A01 T00071012  RH  087%=      5-min Rain = 0
KHE1 130641Z 22011KT 01/M01 A3018 RMK A01 T00071013  RH  087%=      5-min Rain = 0
KHE1 130642Z 22011KT 01/M01 A3018 RMK A01 T00071013  RH  086%=      5-min Rain = 0
KHE1 130643Z 22010KT 01/M01 A3018 RMK A01 T00071013  RH  086%=      5-min Rain = 0
KHE1 130644Z 22011KT 01/M01 A3018 RMK A01 T00071013  RH  086%=      5-min Rain = 0
KHE1 130645Z 22011KT 01/M01 A3018 RMK A01 T00081012  RH  087%=      5-min Rain = 0
KHE1 130646Z 22011KT 01/M01 A3018 RMK A01 T00071013  RH  087%=      5-min Rain = 0
KHE1 130647Z 21011KT 01/M01 A3018 RMK A01 T00071012  RH  087%=      5-min Rain = 0
KHE1 130648Z 21010KT 01/M01 A3018 RMK A01 T00071013  RH  087%=      5-min Rain = 0
KHE1 130649Z 21011KT 01/M01 A3018 RMK A01 T00061013  RH  087%=      5-min Rain = 0
KHE1 130650Z 22011KT 01/M01 A3018 RMK A01 T00061013  RH  087%=      5-min Rain = 0
KHE1 130651Z 22011KT 01/M01 A3018 RMK A01 T00061013  RH  087%=      5-min Rain = 0
KHE1 130652Z 21011KT 01/M01 A3018 RMK A01 T00061013  RH  087%=      5-min Rain = 0
KHE1 130653Z 22011KT 01/M01 A3018 RMK A01 T00061013  RH  087%=      5-min Rain = 0
KHE1 130654Z 22011KT 01/M01 A3018 RMK A01 T00061013  RH  087%=      5-min Rain = 0
KHE1 130655Z 21011KT 01/M01 A3018 RMK A01 T00071013  RH  087%=      5-min Rain = 0
KHE1 130656Z 22011KT 01/M01 A3018 RMK A01 T00061013  RH  087%=      5-min Rain = 0
KHE1 130657Z 22012KT 01/M01 A3018 RMK A01 T00071013  RH  087%=      5-min Rain = 0
KHE1 130658Z 21011KT 01/M01 A3018 RMK A01 T00071013  RH  086%=      5-min Rain = 0
KHE1 130659Z 21011KT 01/M01 A3018 RMK A01 T00081013  RH  086%=      5-min Rain = 0
KHE1 130700Z 22011KT 01/M01 A3018 RMK A01 T00081013  RH  086%=      5-min Rain = 0
KHE1 130701Z 22011KT 01/M01 A3018 RMK A01 T00081013  RH  086%=      5-min Rain = 0
KHE1 130702Z 22011KT 01/M01 A3017 RMK A01 T00081013  RH  086%=      5-min Rain = 0
KHE1 130703Z 22010KT 01/M01 A3018 RMK A01 T00081013  RH  086%=      5-min Rain = 0
KHE1 130704Z 22011KT 01/M01 A3017 RMK A01 T00081013  RH  086%=      5-min Rain = 0
KHE1 130705Z 22011KT 01/M01 A3017 RMK A01 T00081013  RH  086%=      5-min Rain = 0
KHE1 130706Z 22011KT 01/M01 A3017 RMK A01 T00081013  RH  086%=      5-min Rain = 0
KHE1 130707Z 22012KT 01/M01 A3017 RMK A01 T00081013  RH  086%=      5-min Rain = 0
KHE1 130708Z 22011KT 01/M01 A3017 RMK A01 T00081013  RH  086%=      5-min Rain = 0
KHE1 130709Z 22011KT 01/M01 A3017 RMK A01 T00081013  RH  086%=      5-min Rain = 0
KHE1 130710Z 22011KT 01/M01 A3017 RMK A01 T00081013  RH  086%=      5-min Rain = 0
KHE1 130711Z 22011KT 01/M01 A3017 RMK A01 T00081013  RH  086%=      5-min Rain = 0
KHE1 130712Z 22011KT 01/M01 A3017 RMK A01 T00081013  RH  086%=      5-min Rain = 0
KHE1 130713Z 22012KT 01/M01 A3017 RMK A01 T00081013  RH  086%=      5-min Rain = 0
KHE1 130714Z 22012KT 01/M01 A3017 RMK A01 T00091013  RH  086%=      5-min Rain = 0
KHE1 130715Z 22012KT 01/M01 A3017 RMK A01 T00091013  RH  085%=      5-min Rain = 0
KHE1 130716Z 22012KT 01/M01 A3017 RMK A01 T00091013  RH  085%=      5-min Rain = 0
KHE1 130717Z 22012KT 01/M01 A3017 RMK A01 T00101013  RH  085%=      5-min Rain = 0
KHE1 130718Z 22012KT 01/M01 A3017 RMK A01 T00101013  RH  085%=      5-min Rain = 0
KHE1 130719Z 22012KT 01/M01 A3017 RMK A01 T00091013  RH  085%=      5-min Rain = 0
KHE1 130720Z 22011KT 01/M01 A3017 RMK A01 T00091013  RH  085%=      5-min Rain = 0
KHE1 130721Z 22012KT 01/M01 A3017 RMK A01 T00091013  RH  085%=      5-min Rain = 0
KHE1 130722Z 22011KT 01/M01 A3017 RMK A01 T00091013  RH  085%=      5-min Rain = 0
KHE1 130723Z 22011KT 01/M01 A3017 RMK A01 T00091013  RH  085%=      5-min Rain = 0
KHE1 130724Z 22012KT 01/M01 A3017 RMK A01 T00091014  RH  085%=      5-min Rain = 0
KHE1 130725Z 22011KT 01/M01 A3017 RMK A01 T00081014  RH  085%=      5-min Rain = 0
KHE1 130726Z 22011KT 01/M01 A3017 RMK A01 T00091013  RH  085%=      5-min Rain = 0
KHE1 130727Z 22012KT 01/M01 A3017 RMK A01 T00091013  RH  085%=      5-min Rain = 0
KHE1 130728Z 23011KT 01/M01 A3017 RMK A01 T00091013  RH  085%=      5-min Rain = 0
KHE1 130729Z 23011KT 01/M01 A3017 RMK A01 T00091013  RH  085%=      5-min Rain = 0
KHE1 130730Z 23011KT 01/M01 A3017 RMK A01 T00081014  RH  085%=      5-min Rain = 0
KHE1 130731Z 23011KT 01/M01 A3017 RMK A01 T00081014  RH  085%=      5-min Rain = 0
KHE1 130732Z 23011KT 01/M01 A3017 RMK A01 T00091013  RH  085%=      5-min Rain = 0
KHE1 130733Z 23011KT 01/M01 A3017 RMK A01 T00091013  RH  085%=      5-min Rain = 0
KHE1 130734Z 23011KT 01/M01 A3017 RMK A01 T00091013  RH  085%=      5-min Rain = 0
KHE1 130735Z 23011KT 01/M01 A3017 RMK A01 T00091014  RH  085%=      5-min Rain = 0
KHE1 130736Z 23011KT 01/M01 A3017 RMK A01 T00091013  RH  085%=      5-min Rain = 0
KHE1 130737Z 23011KT 01/M01 A3017 RMK A01 T00091013  RH  085%=      5-min Rain = 0
KHE1 130738Z 23011KT 01/M01 A3017 RMK A01 T00091013  RH  085%=      5-min Rain = 0
KHE1 130739Z 23011KT 01/M01 A3017 RMK A01 T00091013  RH  085%=      5-min Rain = 0
KHE1 130740Z 23011KT 01/M01 A3017 RMK A01 T00091013  RH  085%=      5-min Rain = 0
KHE1 130741Z 23010KT 01/M01 A3017 RMK A01 T00091013  RH  085%=      5-min Rain = 0
KHE1 130742Z 23011KT 01/M01 A3017 RMK A01 T00091013  RH  085%=      5-min Rain = 0
KHE1 130743Z 23010KT 01/M01 A3017 RMK A01 T00091013  RH  086%=      5-min Rain = 0
KHE1 130744Z 23010KT 01/M01 A3017 RMK A01 T00091013  RH  086%=      5-min Rain = 0
KHE1 130745Z 23011KT 01/M01 A3017 RMK A01 T00091013  RH  086%=      5-min Rain = 0
KHE1 130746Z 23011KT 01/M01 A3017 RMK A01 T00091012  RH  086%=      5-min Rain = 0
KHE1 130747Z 23011KT 01/M01 A3017 RMK A01 T00091012  RH  085%=      5-min Rain = 0
KHE1 130748Z 23011KT 01/M01 A3017 RMK A01 T00101012  RH  085%=      5-min Rain = 0
KHE1 130749Z 23012KT 01/M01 A3017 RMK A01 T00101013  RH  085%=      5-min Rain = 0
KHE1 130750Z 23012KT 01/M01 A3017 RMK A01 T00091013  RH  085%=      5-min Rain = 0
KHE1 130751Z 23011KT 01/M01 A3017 RMK A01 T00091013  RH  085%=      5-min Rain = 0
KHE1 130752Z 23011KT 01/M01 A3017 RMK A01 T00101012  RH  085%=      5-min Rain = 0
KHE1 130753Z 23011KT 01/M01 A3017 RMK A01 T00091013  RH  085%=      5-min Rain = 0
KHE1 130754Z 23011KT 01/M01 A3017 RMK A01 T00091013  RH  085%=      5-min Rain = 0
KHE1 130755Z 23011KT 01/M01 A3017 RMK A01 T00091013  RH  086%=      5-min Rain = 0
KHE1 130756Z 23010KT 01/M01 A3017 RMK A01 T00081013  RH  086%=      5-min Rain = 0
KHE1 130757Z 22010KT 01/M01 A3017 RMK A01 T00081013  RH  086%=      5-min Rain = 0
KHE1 130758Z 23010KT 01/M01 A3017 RMK A01 T00081013  RH  086%=      5-min Rain = 0
KHE1 130759Z 22010KT 01/M01 A3017 RMK A01 T00081013  RH  086%=      5-min Rain = 0
KHE1 130800Z 22010KT 01/M01 A3017 RMK A01 T00081013  RH  086%=      5-min Rain = 0
KHE1 130801Z 22010KT 01/M01 A3017 RMK A01 T00071013  RH  086%=      5-min Rain = 0
KHE1 130802Z 22010KT 01/M01 A3017 RMK A01 T00061014  RH  086%=      5-min Rain = 0
KHE1 130803Z 22010KT 01/M01 A3017 RMK A01 T00051014  RH  087%=      5-min Rain = 0
KHE1 130804Z 22010KT 00/M01 A3017 RMK A01 T00041014  RH  087%=      5-min Rain = 0
KHE1 130805Z 22010KT 00/M01 A3017 RMK A01 T00041014  RH  088%=      5-min Rain = 0
KHE1 130806Z 22009KT 00/M01 A3017 RMK A01 T00031014  RH  088%=      5-min Rain = 0
KHE1 130807Z 22009KT 00/M01 A3017 RMK A01 T00031014  RH  088%=      5-min Rain = 0
KHE1 130808Z 22009KT 00/M02 A3017 RMK A01 T00021015  RH  088%=      5-min Rain = 0
KHE1 130809Z 22009KT 00/M02 A3017 RMK A01 T00021015  RH  089%=      5-min Rain = 0
KHE1 130810Z 22009KT 00/M02 A3017 RMK A01 T00011015  RH  089%=      5-min Rain = 0
KHE1 130811Z 22009KT 00/M02 A3017 RMK A01 T00011015  RH  089%=      5-min Rain = 0
KHE1 130812Z 22009KT 00/M02 A3017 RMK A01 T00011015  RH  089%=      5-min Rain = 0
KHE1 130813Z 22009KT 00/M02 A3017 RMK A01 T00011015  RH  089%=      5-min Rain = 0
KHE1 130814Z 22009KT 00/M02 A3017 RMK A01 T00011015  RH  089%=      5-min Rain = 0
KHE1 130815Z 22009KT 00/M02 A3017 RMK A01 T00011015  RH  089%=      5-min Rain = 0
KHE1 130816Z 22009KT 00/M01 A3017 RMK A01 T00011014  RH  089%=      5-min Rain = 0
KHE1 130817Z 22009KT 00/M02 A3017 RMK A01 T00011015  RH  089%=      5-min Rain = 0
KHE1 130818Z 22008KT 00/M02 A3017 RMK A01 T00011015  RH  089%=      5-min Rain = 0
KHE1 130819Z 22009KT 00/M02 A3017 RMK A01 T00011015  RH  089%=      5-min Rain = 0
KHE1 130820Z 22009KT 00/M02 A3017 RMK A01 T00011015  RH  089%=      5-min Rain = 0
KHE1 130821Z 22009KT 00/M02 A3017 RMK A01 T00011015  RH  089%=      5-min Rain = 0
KHE1 130822Z 22009KT 00/M02 A3017 RMK A01 T00021015  RH  089%=      5-min Rain = 0
KHE1 130823Z 22009KT 00/M02 A3017 RMK A01 T00021015  RH  089%=      5-min Rain = 0
KHE1 130824Z 21009KT 00/M02 A3017 RMK A01 T00021015  RH  089%=      5-min Rain = 0
KHE1 130825Z 22009KT 00/M02 A3017 RMK A01 T00021015  RH  089%=      5-min Rain = 0
KHE1 130826Z 22009KT 00/M02 A3017 RMK A01 T00021015  RH  089%=      5-min Rain = 0
KHE1 130827Z 22009KT 00/M02 A3017 RMK A01 T00021015  RH  089%=      5-min Rain = 0
KHE1 130828Z 22009KT 00/M02 A3018 RMK A01 T00021015  RH  089%=      5-min Rain = 0
KHE1 130829Z 21008KT 00/M02 A3018 RMK A01 T00021015  RH  089%=      5-min Rain = 0
KHE1 130830Z 21008KT 00/M02 A3018 RMK A01 T00011015  RH  089%=      5-min Rain = 0
KHE1 130831Z 21008KT 00/M02 A3018 RMK A01 T00011015  RH  089%=      5-min Rain = 0
KHE1 130832Z 21008KT 00/M02 A3018 RMK A01 T00011015  RH  089%=      5-min Rain = 0
KHE1 130833Z 21009KT 00/M02 A3018 RMK A01 T00011015  RH  089%=      5-min Rain = 0
KHE1 130834Z 21009KT 00/M02 A3018 RMK A01 T00011015  RH  089%=      5-min Rain = 0
KHE1 130835Z 21009KT 00/M02 A3018 RMK A01 T00011015  RH  089%=      5-min Rain = 0
KHE1 130836Z 21009KT 00/02 A3018 RMK A01 T00000-15  RH  089%=      5-min Rain = 0
KHE1 130837Z 21009KT 00/M02 A3018 RMK A01 T00011015  RH  089%=      5-min Rain = 0
KHE1 130838Z 21009KT 00/M02 A3018 RMK A01 T00011015  RH  089%=      5-min Rain = 0
KHE1 130839Z 21008KT 00/M02 A3018 RMK A01 T00011015  RH  089%=      5-min Rain = 0
KHE1 130840Z 21008KT 00/M02 A3018 RMK A01 T00011015  RH  089%=      5-min Rain = 0
KHE1 130841Z 21008KT 00/M02 A3018 RMK A01 T00021015  RH  089%=      5-min Rain = 0
KHE1 130842Z 21008KT 00/M02 A3018 RMK A01 T00011016  RH  089%=      5-min Rain = 0
KHE1 130843Z 21007KT 00/M02 A3018 RMK A01 T00011016  RH  089%=      5-min Rain = 0
KHE1 130844Z 20007KT 00/02 A3018 RMK A01 T00-00-16  RH  089%=      5-min Rain = 0
KHE1 130845Z 20008KT 00/02 A3018 RMK A01 T00000-16  RH  089%=      5-min Rain = 0
KHE1 130846Z 21008KT 00/02 A3018 RMK A01 T00-00-16  RH  089%=      5-min Rain = 0
KHE1 130847Z 21008KT 00/02 A3018 RMK A01 T00-00-16  RH  089%=      5-min Rain = 0
KHE1 130848Z 21008KT M00/M02 A3018 RMK A01 T10011016  RH  089%=      5-min Rain = 0
KHE1 130849Z 21008KT M00/M02 A3018 RMK A01 T10011016  RH  090%=      5-min Rain = 0
KHE1 130850Z 21008KT M00/M02 A3018 RMK A01 T10011016  RH  090%=      5-min Rain = 0
KHE1 130851Z 21008KT M00/M02 A3018 RMK A01 T10011016  RH  090%=      5-min Rain = 0
KHE1 130852Z 21007KT M00/M02 A3018 RMK A01 T10021016  RH  090%=      5-min Rain = 0
KHE1 130853Z 21007KT M00/M02 A3018 RMK A01 T10021016  RH  090%=      5-min Rain = 0
KHE1 130854Z 21008KT M00/M02 A3018 RMK A01 T10031017  RH  090%=      5-min Rain = 0
KHE1 130855Z 21008KT M00/M02 A3018 RMK A01 T10031017  RH  091%=      5-min Rain = 0
KHE1 130856Z 21008KT M00/M02 A3018 RMK A01 T10031017  RH  091%=      5-min Rain = 0
KHE1 130857Z 21008KT M00/M02 A3018 RMK A01 T10041017  RH  091%=      5-min Rain = 0
KHE1 130858Z 21008KT M00/M02 A3018 RMK A01 T10041016  RH  091%=      5-min Rain = 0
KHE1 130859Z 21008KT M00/M02 A3018 RMK A01 T10031016  RH  091%=      5-min Rain = 0
KHE1 130900Z 21008KT M00/M02 A3018 RMK A01 T10041017  RH  091%=      5-min Rain = 0
KHE1 130901Z 21008KT M00/M02 A3018 RMK A01 T10041017  RH  091%=      5-min Rain = 0
KHE1 130902Z 21008KT M00/M02 A3018 RMK A01 T10041017  RH  091%=      5-min Rain = 0
KHE1 130903Z 22008KT M00/M02 A3018 RMK A01 T10031016  RH  091%=      5-min Rain = 0
KHE1 130904Z 21008KT M00/M02 A3018 RMK A01 T10041016  RH  091%=      5-min Rain = 0
KHE1 130905Z 21008KT M00/M02 A3018 RMK A01 T10041017  RH  091%=      5-min Rain = 0
KHE1 130906Z 22008KT M00/M02 A3018 RMK A01 T10041017  RH  091%=      5-min Rain = 0
KHE1 130907Z 22008KT M00/M02 A3018 RMK A01 T10041017  RH  091%=      5-min Rain = 0
KHE1 130908Z 21007KT M00/M02 A3018 RMK A01 T10041017  RH  091%=      5-min Rain = 0
KHE1 130909Z 21007KT M01/M02 A3018 RMK A01 T10051017  RH  091%=      5-min Rain = 0
KHE1 130910Z 21008KT M01/M02 A3018 RMK A01 T10051017  RH  091%=      5-min Rain = 0
KHE1 130911Z 21008KT M01/M02 A3018 RMK A01 T10051017  RH  091%=      5-min Rain = 0
KHE1 130912Z 21008KT M01/M02 A3018 RMK A01 T10051017  RH  091%=      5-min Rain = 0
KHE1 130913Z 21008KT M01/M02 A3018 RMK A01 T10051017  RH  091%=      5-min Rain = 0
KHE1 130914Z 21008KT M01/M02 A3018 RMK A01 T10051017  RH  091%=      5-min Rain = 0
KHE1 130915Z 21008KT M01/M02 A3018 RMK A01 T10051017  RH  091%=      5-min Rain = 0
KHE1 130916Z 21008KT M01/M02 A3018 RMK A01 T10051017  RH  092%=      5-min Rain = 0
KHE1 130917Z 21008KT M01/M02 A3018 RMK A01 T10051017  RH  091%=      5-min Rain = 0
KHE1 130918Z 21008KT M01/M02 A3018 RMK A01 T10051017  RH  091%=      5-min Rain = 0
KHE1 130919Z 21008KT M01/M02 A3018 RMK A01 T10051017  RH  091%=      5-min Rain = 0
KHE1 130920Z 21009KT M01/M02 A3018 RMK A01 T10051017  RH  091%=      5-min Rain = 0
KHE1 130921Z 21008KT M01/M02 A3018 RMK A01 T10051018  RH  091%=      5-min Rain = 0
KHE1 130922Z 21008KT M01/M02 A3018 RMK A01 T10051017  RH  091%=      5-min Rain = 0
KHE1 130923Z 21008KT M01/M02 A3018 RMK A01 T10051018  RH  091%=      5-min Rain = 0
KHE1 130924Z 21008KT M01/M02 A3018 RMK A01 T10051018  RH  091%=      5-min Rain = 0
KHE1 130925Z 21008KT M01/M02 A3018 RMK A01 T10051018  RH  091%=      5-min Rain = 0
KHE1 130926Z 21008KT M01/M02 A3018 RMK A01 T10051018  RH  091%=      5-min Rain = 0
KHE1 130927Z 21008KT M01/M02 A3018 RMK A01 T10051018  RH  091%=      5-min Rain = 0
KHE1 130928Z 21008KT M01/M02 A3018 RMK A01 T10051018  RH  091%=      5-min Rain = 0
KHE1 130929Z 21008KT M01/M02 A3018 RMK A01 T10051018  RH  091%=      5-min Rain = 0
KHE1 130930Z 21008KT M00/M02 A3018 RMK A01 T10041018  RH  091%=      5-min Rain = 0
KHE1 130931Z 21008KT M00/M02 A3018 RMK A01 T10041017  RH  091%=      5-min Rain = 0
KHE1 130932Z 21007KT M00/M02 A3018 RMK A01 T10041017  RH  091%=      5-min Rain = 0
KHE1 130933Z 21007KT M00/M02 A3018 RMK A01 T10041017  RH  091%=      5-min Rain = 0
KHE1 130934Z 21008KT M00/M02 A3018 RMK A01 T10031017  RH  090%=      5-min Rain = 0
KHE1 130935Z 21008KT M00/M02 A3018 RMK A01 T10031017  RH  090%=      5-min Rain = 0
KHE1 130936Z 21008KT M00/M02 A3018 RMK A01 T10031017  RH  090%=      5-min Rain = 0
KHE1 130937Z 21007KT M00/M02 A3018 RMK A01 T10031017  RH  090%=      5-min Rain = 0
KHE1 130938Z 21008KT M00/M02 A3018 RMK A01 T10031018  RH  090%=      5-min Rain = 0
KHE1 130939Z 21008KT M00/M02 A3018 RMK A01 T10031018  RH  090%=      5-min Rain = 0
KHE1 130940Z 21008KT M00/M02 A3018 RMK A01 T10021017  RH  090%=      5-min Rain = 0
KHE1 130941Z 21008KT M00/M02 A3018 RMK A01 T10021017  RH  089%=      5-min Rain = 0
KHE1 130942Z 21008KT M00/M02 A3017 RMK A01 T10021017  RH  089%=      5-min Rain = 0
KHE1 130943Z 21008KT M00/M02 A3017 RMK A01 T10021018  RH  089%=      5-min Rain = 0
KHE1 130944Z 21008KT M00/M02 A3017 RMK A01 T10021018  RH  089%=      5-min Rain = 0
KHE1 130945Z 21008KT M00/M02 A3017 RMK A01 T10021018  RH  089%=      5-min Rain = 0
KHE1 130946Z 21008KT M00/M02 A3017 RMK A01 T10011017  RH  089%=      5-min Rain = 0
KHE1 130947Z 21008KT M00/M02 A3017 RMK A01 T10011018  RH  089%=      5-min Rain = 0
KHE1 130948Z 21008KT M00/M02 A3017 RMK A01 T10021018  RH  089%=      5-min Rain = 0
KHE1 130949Z 21008KT M00/M02 A3017 RMK A01 T10021018  RH  089%=      5-min Rain = 0
KHE1 130950Z 21008KT M00/M02 A3017 RMK A01 T10021018  RH  089%=      5-min Rain = 0
KHE1 130951Z 21008KT M00/M02 A3017 RMK A01 T10021018  RH  089%=      5-min Rain = 0
KHE1 130952Z 21008KT M00/M02 A3017 RMK A01 T10021018  RH  089%=      5-min Rain = 0
KHE1 130953Z 21008KT M00/M02 A3017 RMK A01 T10021018  RH  089%=      5-min Rain = 0
KHE1 130954Z 21007KT M00/M02 A3017 RMK A01 T10021018  RH  089%=      5-min Rain = 0
KHE1 130955Z 20007KT M00/M02 A3017 RMK A01 T10021018  RH  089%=      5-min Rain = 0
KHE1 130956Z 20007KT M00/M02 A3017 RMK A01 T10031018  RH  089%=      5-min Rain = 0
KHE1 130957Z 21008KT M00/M02 A3017 RMK A01 T10031019  RH  089%=      5-min Rain = 0
KHE1 130958Z 21007KT M00/M02 A3017 RMK A01 T10041019  RH  090%=      5-min Rain = 0
KHE1 130959Z 21008KT M00/M02 A3017 RMK A01 T10041019  RH  090%=      5-min Rain = 0
KHE1 131000Z 21008KT M00/M02 A3017 RMK A01 T10041019  RH  090%=      5-min Rain = 0
KHE1 131001Z 21008KT M00/M02 A3017 RMK A01 T10041019  RH  090%=      5-min Rain = 0
KHE1 131002Z 21007KT M00/M02 A3017 RMK A01 T10041019  RH  090%=      5-min Rain = 0
KHE1 131003Z 21008KT M01/M02 A3017 RMK A01 T10051019  RH  090%=      5-min Rain = 0
KHE1 131004Z 21008KT M00/M02 A3017 RMK A01 T10041019  RH  090%=      5-min Rain = 0
KHE1 131005Z 21008KT M01/M02 A3017 RMK A01 T10051019  RH  090%=      5-min Rain = 0
KHE1 131006Z 21008KT M01/M02 A3017 RMK A01 T10051019  RH  090%=      5-min Rain = 0
KHE1 131007Z 21008KT M01/M02 A3016 RMK A01 T10051019  RH  090%=      5-min Rain = 0
KHE1 131008Z 21008KT M01/M02 A3016 RMK A01 T10061020  RH  090%=      5-min Rain = 0
KHE1 131009Z 21008KT M01/M02 A3016 RMK A01 T10061020  RH  090%=      5-min Rain = 0
KHE1 131010Z 21008KT M01/M02 A3016 RMK A01 T10061020  RH  091%=      5-min Rain = 0
KHE1 131011Z 21008KT M01/M02 A3016 RMK A01 T10061019  RH  091%=      5-min Rain = 0
KHE1 131012Z 21008KT M01/M02 A3016 RMK A01 T10061019  RH  091%=      5-min Rain = 0
KHE1 131013Z 21008KT M01/M02 A3016 RMK A01 T10061020  RH  091%=      5-min Rain = 0
KHE1 131014Z 21007KT M01/M02 A3016 RMK A01 T10071020  RH  091%=      5-min Rain = 0
KHE1 131015Z 21007KT M01/M02 A3016 RMK A01 T10071020  RH  091%=      5-min Rain = 0
KHE1 131016Z 21008KT M01/M02 A3016 RMK A01 T10071020  RH  091%=      5-min Rain = 0
KHE1 131017Z 21007KT M01/M02 A3016 RMK A01 T10071020  RH  091%=      5-min Rain = 0
KHE1 131018Z 21008KT M01/M02 A3016 RMK A01 T10071020  RH  091%=      5-min Rain = 0
KHE1 131019Z 21008KT M01/M02 A3016 RMK A01 T10071020  RH  091%=      5-min Rain = 0
KHE1 131020Z 21008KT M01/M02 A3016 RMK A01 T10071020  RH  091%=      5-min Rain = 0
KHE1 131021Z 21007KT M01/M02 A3016 RMK A01 T10071020  RH  091%=      5-min Rain = 0
KHE1 131022Z 21007KT M01/M02 A3016 RMK A01 T10071020  RH  091%=      5-min Rain = 0
KHE1 131023Z 21007KT M01/M02 A3016 RMK A01 T10071020  RH  091%=      5-min Rain = 0
KHE1 131024Z 21007KT M01/M02 A3016 RMK A01 T10071020  RH  091%=      5-min Rain = 0
KHE1 131025Z 21007KT M01/M02 A3016 RMK A01 T10071020  RH  091%=      5-min Rain = 0
KHE1 131026Z 21007KT M01/M02 A3016 RMK A01 T10081020  RH  091%=      5-min Rain = 0
KHE1 131027Z 21008KT M01/M02 A3016 RMK A01 T10081021  RH  091%=      5-min Rain = 0
KHE1 131028Z 21008KT M01/M02 A3016 RMK A01 T10081020  RH  091%=      5-min Rain = 0
KHE1 131029Z 20008KT M01/M02 A3016 RMK A01 T10081020  RH  092%=      5-min Rain = 0
KHE1 131030Z 21008KT M01/M02 A3016 RMK A01 T10081020  RH  092%=      5-min Rain = 0
KHE1 131031Z 21008KT M01/M02 A3016 RMK A01 T10081020  RH  092%=      5-min Rain = 0
KHE1 131032Z 20008KT M01/M02 A3016 RMK A01 T10081020  RH  091%=      5-min Rain = 0
KHE1 131033Z 20008KT M01/M02 A3016 RMK A01 T10081020  RH  091%=      5-min Rain = 0
KHE1 131034Z 20008KT M01/M02 A3016 RMK A01 T10071020  RH  091%=      5-min Rain = 0
KHE1 131035Z 21008KT M01/M02 A3016 RMK A01 T10071020  RH  091%=      5-min Rain = 0
KHE1 131036Z 21008KT M01/M02 A3016 RMK A01 T10071020  RH  091%=      5-min Rain = 0
KHE1 131037Z 21008KT M01/M02 A3016 RMK A01 T10071020  RH  091%=      5-min Rain = 0
KHE1 131038Z 20008KT M01/M02 A3016 RMK A01 T10071020  RH  091%=      5-min Rain = 0
KHE1 131039Z 21008KT M01/M02 A3016 RMK A01 T10071020  RH  091%=      5-min Rain = 0
KHE1 131040Z 21008KT M01/M02 A3016 RMK A01 T10071020  RH  091%=      5-min Rain = 0
KHE1 131041Z 21008KT M01/M02 A3016 RMK A01 T10071020  RH  091%=      5-min Rain = 0
KHE1 131042Z 21009KT M01/M02 A3016 RMK A01 T10071020  RH  091%=      5-min Rain = 0
KHE1 131043Z 21009KT M01/M02 A3016 RMK A01 T10071020  RH  091%=      5-min Rain = 0
KHE1 131044Z 21009KT M01/M02 A3016 RMK A01 T10071020  RH  091%=      5-min Rain = 0
KHE1 131045Z 21009KT M01/M02 A3016 RMK A01 T10071020  RH  091%=      5-min Rain = 0
KHE1 131046Z 21009KT M01/M02 A3016 RMK A01 T10071020  RH  091%=      5-min Rain = 0
KHE1 131047Z 21009KT M01/M02 A3016 RMK A01 T10061020  RH  091%=      5-min Rain = 0
KHE1 131048Z 21009KT M01/M02 A3016 RMK A01 T10061020  RH  090%=      5-min Rain = 0
KHE1 131049Z 21009KT M01/M02 A3016 RMK A01 T10061020  RH  090%=      5-min Rain = 0
KHE1 131050Z 21009KT M01/M02 A3016 RMK A01 T10061020  RH  090%=      5-min Rain = 0
KHE1 131051Z 21010KT M01/M02 A3016 RMK A01 T10061020  RH  090%=      5-min Rain = 0
KHE1 131052Z 21009KT M01/M02 A3016 RMK A01 T10061020  RH  090%=      5-min Rain = 0
KHE1 131053Z 21009KT M01/M02 A3016 RMK A01 T10061020  RH  090%=      5-min Rain = 0
KHE1 131054Z 21009KT M01/M02 A3016 RMK A01 T10061020  RH  090%=      5-min Rain = 0
KHE1 131055Z 21009KT M01/M02 A3016 RMK A01 T10061020  RH  090%=      5-min Rain = 0
KHE1 131056Z 21009KT M01/M02 A3015 RMK A01 T10061020  RH  090%=      5-min Rain = 0
KHE1 131057Z 21009KT M01/M02 A3016 RMK A01 T10061021  RH  090%=      5-min Rain = 0
KHE1 131058Z 21008KT M01/M02 A3016 RMK A01 T10061021  RH  090%=      5-min Rain = 0
KHE1 131059Z 20008KT M01/M02 A3015 RMK A01 T10061021  RH  090%=      5-min Rain = 0
KHE1 131100Z 21009KT M01/M02 A3015 RMK A01 T10061021  RH  090%=      5-min Rain = 0
KHE1 131101Z 21009KT M01/M02 A3015 RMK A01 T10061021  RH  090%=      5-min Rain = 0
KHE1 131102Z 20009KT M01/M02 A3015 RMK A01 T10061021  RH  090%=      5-min Rain = 0
KHE1 131103Z 20009KT M01/M02 A3015 RMK A01 T10061021  RH  090%=      5-min Rain = 0
KHE1 131104Z 20009KT M01/M02 A3015 RMK A01 T10061021  RH  090%=      5-min Rain = 0
KHE1 131105Z 20009KT M01/M02 A3015 RMK A01 T10061021  RH  090%=      5-min Rain = 0
KHE1 131106Z 20008KT M01/M02 A3015 RMK A01 T10061021  RH  090%=      5-min Rain = 0
KHE1 131107Z 20008KT M01/M02 A3015 RMK A01 T10061021  RH  090%=      5-min Rain = 0
KHE1 131108Z 20009KT M01/M02 A3015 RMK A01 T10061021  RH  090%=      5-min Rain = 0
KHE1 131109Z 20009KT M01/M02 A3015 RMK A01 T10061021  RH  090%=      5-min Rain = 0
KHE1 131110Z 20008KT M01/M02 A3015 RMK A01 T10061021  RH  090%=      5-min Rain = 0
KHE1 131111Z 20008KT M01/M02 A3014 RMK A01 T10061021  RH  090%=      5-min Rain = 0
KHE1 131112Z 20009KT M01/M02 A3014 RMK A01 T10061021  RH  090%=      5-min Rain = 0
KHE1 131113Z 20009KT M01/M02 A3014 RMK A01 T10061021  RH  090%=      5-min Rain = 0
KHE1 131114Z 20008KT M01/M02 A3014 RMK A01 T10061021  RH  090%=      5-min Rain = 0
KHE1 131115Z 20008KT M01/M02 A3014 RMK A01 T10061021  RH  090%=      5-min Rain = 0
KHE1 131116Z 20008KT M01/M02 A3014 RMK A01 T10061021  RH  090%=      5-min Rain = 0
KHE1 131117Z 20008KT M01/M02 A3014 RMK A01 T10061021  RH  090%=      5-min Rain = 0
KHE1 131118Z 20008KT M01/M02 A3014 RMK A01 T10061021  RH  090%=      5-min Rain = 0
KHE1 131119Z 20008KT M01/M02 A3014 RMK A01 T10061021  RH  090%=      5-min Rain = 0
KHE1 131120Z 20009KT M01/M02 A3014 RMK A01 T10071021  RH  090%=      5-min Rain = 0
KHE1 131121Z 20009KT M01/M02 A3014 RMK A01 T10061021  RH  090%=      5-min Rain = 0
KHE1 131122Z 20009KT M01/M02 A3014 RMK A01 T10061021  RH  090%=      5-min Rain = 0
KHE1 131123Z 20009KT M01/M02 A3014 RMK A01 T10061021  RH  090%=      5-min Rain = 0
KHE1 131124Z 20009KT M01/M02 A3014 RMK A01 T10061021  RH  090%=      5-min Rain = 0
KHE1 131125Z 21009KT M01/M02 A3014 RMK A01 T10061021  RH  090%=      5-min Rain = 0
KHE1 131126Z 20010KT M01/M02 A3014 RMK A01 T10061021  RH  089%=      5-min Rain = 0
KHE1 131127Z 20009KT M01/M02 A3014 RMK A01 T10061021  RH  089%=      5-min Rain = 0
KHE1 131128Z 20010KT M01/M02 A3014 RMK A01 T10061022  RH  089%=      5-min Rain = 0
KHE1 131129Z 20010KT M01/M02 A3014 RMK A01 T10061022  RH  089%=      5-min Rain = 0
KHE1 131130Z 20010KT M01/M02 A3014 RMK A01 T10061021  RH  089%=      5-min Rain = 0
KHE1 131131Z 21010KT M01/M02 A3014 RMK A01 T10051022  RH  089%=      5-min Rain = 0
KHE1 131132Z 21010KT M01/M02 A3013 RMK A01 T10051022  RH  089%=      5-min Rain = 0
KHE1 131133Z 21010KT M01/M02 A3013 RMK A01 T10051022  RH  089%=      5-min Rain = 0
KHE1 131134Z 21010KT M01/M02 A3013 RMK A01 T10051022  RH  089%=      5-min Rain = 0
KHE1 131135Z 21010KT M01/M02 A3013 RMK A01 T10051022  RH  088%=      5-min Rain = 0
KHE1 131136Z 20010KT M01/M02 A3013 RMK A01 T10051022  RH  088%=      5-min Rain = 0
KHE1 131137Z 20011KT M01/M02 A3013 RMK A01 T10051022  RH  088%=      5-min Rain = 0
KHE1 131138Z 21011KT M01/M02 A3013 RMK A01 T10051022  RH  088%=      5-min Rain = 0
KHE1 131139Z 21011KT M00/M02 A3013 RMK A01 T10041022  RH  088%=      5-min Rain = 0
KHE1 131140Z 21011KT M00/M02 A3013 RMK A01 T10041022  RH  088%=      5-min Rain = 0
KHE1 131141Z 21010KT M01/M02 A3013 RMK A01 T10051022  RH  088%=      5-min Rain = 0
KHE1 131142Z 20010KT M01/M02 A3013 RMK A01 T10051022  RH  088%=      5-min Rain = 0
KHE1 131143Z 20010KT M00/M02 A3013 RMK A01 T10041022  RH  088%=      5-min Rain = 0
KHE1 131144Z 20010KT M01/M02 A3013 RMK A01 T10051022  RH  088%=      5-min Rain = 0
KHE1 131145Z 20010KT M01/M02 A3013 RMK A01 T10051022  RH  088%=      5-min Rain = 0
KHE1 131146Z 20010KT M01/M02 A3013 RMK A01 T10051023  RH  088%=      5-min Rain = 0
KHE1 131147Z 20010KT M01/M02 A3013 RMK A01 T10051022  RH  088%=      5-min Rain = 0
KHE1 131148Z 20009KT M01/M02 A3013 RMK A01 T10051022  RH  088%=      5-min Rain = 0
KHE1 131149Z 20009KT M01/M02 A3013 RMK A01 T10061022  RH  088%=      5-min Rain = 0
KHE1 131150Z 20009KT M01/M02 A3013 RMK A01 T10051022  RH  089%=      5-min Rain = 0
KHE1 131151Z 20010KT M01/M02 A3013 RMK A01 T10061022  RH  089%=      5-min Rain = 0
KHE1 131152Z 20009KT M01/M02 A3013 RMK A01 T10051022  RH  089%=      5-min Rain = 0
KHE1 131153Z 20009KT M01/M02 A3013 RMK A01 T10051022  RH  088%=      5-min Rain = 0
KHE1 131154Z 20009KT M01/M02 A3013 RMK A01 T10051022  RH  089%=      5-min Rain = 0
KHE1 131155Z 20009KT M01/M02 A3013 RMK A01 T10051022  RH  089%=      5-min Rain = 0
KHE1 131156Z 20009KT M01/M02 A3013 RMK A01 T10051022  RH  088%=      5-min Rain = 0
KHE1 131157Z 20009KT M01/M02 A3013 RMK A01 T10051022  RH  088%=      5-min Rain = 0
KHE1 131158Z 20009KT M01/M02 A3013 RMK A01 T10051022  RH  089%=      5-min Rain = 0
KHE1 131159Z 20009KT M01/M02 A3013 RMK A01 T10061022  RH  089%=      5-min Rain = 0
KHE1 131200Z 20009KT M01/M02 A3013 RMK A01 T10061022  RH  089%=      5-min Rain = 0
KHE1 131201Z 20009KT M01/M02 A3013 RMK A01 T10061022  RH  089%=      5-min Rain = 0
KHE1 131202Z 20009KT M01/M02 A3013 RMK A01 T10061022  RH  089%=      5-min Rain = 0
KHE1 131203Z 20009KT M01/M02 A3013 RMK A01 T10061022  RH  089%=      5-min Rain = 0
KHE1 131204Z 20009KT M01/M02 A3013 RMK A01 T10051022  RH  089%=      5-min Rain = 0
KHE1 131205Z 20009KT M01/M02 A3013 RMK A01 T10051022  RH  088%=      5-min Rain = 0
KHE1 131206Z 20010KT M01/M02 A3013 RMK A01 T10051022  RH  088%=      5-min Rain = 0
KHE1 131207Z 20010KT M01/M02 A3013 RMK A01 T10051022  RH  089%=      5-min Rain = 0
KHE1 131208Z 20009KT M01/M02 A3013 RMK A01 T10051022  RH  089%=      5-min Rain = 0
KHE1 131209Z 20009KT M01/M02 A3013 RMK A01 T10051022  RH  089%=      5-min Rain = 0
KHE1 131210Z 20009KT M01/M02 A3013 RMK A01 T10051022  RH  088%=      5-min Rain = 0
KHE1 131211Z 20010KT M01/M02 A3013 RMK A01 T10061022  RH  088%=      5-min Rain = 0
KHE1 131212Z 20010KT M01/M02 A3013 RMK A01 T10051022  RH  088%=      5-min Rain = 0
KHE1 131213Z 20010KT M01/M02 A3013 RMK A01 T10051022  RH  088%=      5-min Rain = 0
KHE1 131214Z 20009KT M00/M02 A3013 RMK A01 T10041022  RH  088%=      5-min Rain = 0
KHE1 131215Z 20010KT M00/M02 A3013 RMK A01 T10041022  RH  088%=      5-min Rain = 0
KHE1 131216Z 20010KT M00/M02 A3013 RMK A01 T10041022  RH  088%=      5-min Rain = 0
KHE1 131217Z 20010KT M00/M02 A3013 RMK A01 T10041022  RH  088%=      5-min Rain = 0
KHE1 131218Z 20010KT M00/M02 A3013 RMK A01 T10031021  RH  088%=      5-min Rain = 0
KHE1 131219Z 20009KT M00/M02 A3013 RMK A01 T10041022  RH  088%=      5-min Rain = 0
KHE1 131220Z 20009KT M00/M02 A3013 RMK A01 T10041022  RH  088%=      5-min Rain = 0
KHE1 131221Z 20009KT M01/M02 A3013 RMK A01 T10051022  RH  088%=      5-min Rain = 0
KHE1 131222Z 20010KT M01/M02 A3013 RMK A01 T10051022  RH  088%=      5-min Rain = 0
KHE1 131223Z 20009KT M01/M02 A3013 RMK A01 T10051022  RH  089%=      5-min Rain = 0
KHE1 131224Z 20009KT M01/M02 A3013 RMK A01 T10051021  RH  089%=      5-min Rain = 0
KHE1 131225Z 21009KT M01/M02 A3013 RMK A01 T10051021  RH  089%=      5-min Rain = 0
KHE1 131226Z 20009KT M01/M02 A3013 RMK A01 T10051021  RH  089%=      5-min Rain = 0
KHE1 131227Z 21009KT M01/M02 A3013 RMK A01 T10051021  RH  089%=      5-min Rain = 0
KHE1 131228Z 20009KT M01/M02 A3013 RMK A01 T10051021  RH  089%=      5-min Rain = 0
KHE1 131229Z 20009KT M01/M02 A3013 RMK A01 T10051021  RH  089%=      5-min Rain = 0
KHE1 131230Z 20009KT M01/M02 A3013 RMK A01 T10051022  RH  089%=      5-min Rain = 0
KHE1 131231Z 20010KT M01/M02 A3013 RMK A01 T10051022  RH  089%=      5-min Rain = 0
KHE1 131232Z 20009KT M01/M02 A3013 RMK A01 T10051022  RH  089%=      5-min Rain = 0
KHE1 131233Z 21009KT M01/M02 A3013 RMK A01 T10051022  RH  089%=      5-min Rain = 0
KHE1 131234Z 21009KT M01/M02 A3013 RMK A01 T10051022  RH  088%=      5-min Rain = 0
KHE1 131235Z 21009KT M01/M02 A3013 RMK A01 T10051022  RH  089%=      5-min Rain = 0
KHE1 131236Z 21010KT M01/M02 A3013 RMK A01 T10051022  RH  089%=      5-min Rain = 0
KHE1 131237Z 20010KT M01/M02 A3013 RMK A01 T10051022  RH  089%=      5-min Rain = 0
KHE1 131238Z 20010KT M01/M02 A3013 RMK A01 T10051021  RH  089%=      5-min Rain = 0
KHE1 131239Z 21009KT M01/M02 A3013 RMK A01 T10051021  RH  089%=      5-min Rain = 0
KHE1 131240Z 21009KT M01/M02 A3013 RMK A01 T10051022  RH  089%=      5-min Rain = 0
KHE1 131241Z 21009KT M01/M02 A3013 RMK A01 T10051022  RH  089%=      5-min Rain = 0
KHE1 131242Z 21009KT M01/M02 A3013 RMK A01 T10051022  RH  089%=      5-min Rain = 0
KHE1 131243Z 21008KT M01/M02 A3013 RMK A01 T10051022  RH  089%=      5-min Rain = 0
KHE1 131244Z 21009KT M01/M02 A3013 RMK A01 T10051022  RH  089%=      5-min Rain = 0
KHE1 131245Z 21009KT M01/M02 A3013 RMK A01 T10061022  RH  089%=      5-min Rain = 0
KHE1 131246Z 21009KT M01/M02 A3013 RMK A01 T10051022  RH  089%=      5-min Rain = 0
KHE1 131247Z 21009KT M01/M02 A3013 RMK A01 T10051022  RH  089%=      5-min Rain = 0
KHE1 131248Z 21008KT M01/M02 A3013 RMK A01 T10061022  RH  089%=      5-min Rain = 0
KHE1 131249Z 21008KT M01/M02 A3013 RMK A01 T10061022  RH  089%=      5-min Rain = 0
KHE1 131250Z 21008KT M01/M02 A3013 RMK A01 T10061022  RH  089%=      5-min Rain = 0
KHE1 131251Z 21008KT M01/M02 A3013 RMK A01 T10061022  RH  089%=      5-min Rain = 0
KHE1 131252Z 21008KT M01/M02 A3013 RMK A01 T10071022  RH  089%=      5-min Rain = 0
KHE1 131253Z 21009KT M01/M02 A3013 RMK A01 T10071022  RH  089%=      5-min Rain = 0
KHE1 131254Z 21009KT M01/M02 A3013 RMK A01 T10071022  RH  090%=      5-min Rain = 0
KHE1 131255Z 21009KT M01/M02 A3013 RMK A01 T10071022  RH  089%=      5-min Rain = 0
KHE1 131256Z 21008KT M01/M02 A3013 RMK A01 T10071023  RH  089%=      5-min Rain = 0
KHE1 131257Z 21008KT M01/M02 A3013 RMK A01 T10071023  RH  089%=      5-min Rain = 0
KHE1 131258Z 21008KT M01/M02 A3012 RMK A01 T10071023  RH  089%=      5-min Rain = 0
KHE1 131259Z 21008KT M01/M02 A3012 RMK A01 T10081023  RH  090%=      5-min Rain = 0
KHE1 131300Z 21008KT M01/M02 A3012 RMK A01 T10081023  RH  090%=      5-min Rain = 0
KHE1 131301Z 21009KT M01/M02 A3012 RMK A01 T10081023  RH  090%=      5-min Rain = 0
KHE1 131302Z 21009KT M01/M02 A3012 RMK A01 T10081023  RH  090%=      5-min Rain = 0
KHE1 131303Z 21009KT M01/M02 A3012 RMK A01 T10081023  RH  090%=      5-min Rain = 0
KHE1 131304Z 21009KT M01/M02 A3012 RMK A01 T10081023  RH  090%=      5-min Rain = 0
KHE1 131305Z 21008KT M01/M02 A3012 RMK A01 T10081023  RH  090%=      5-min Rain = 0
KHE1 131306Z 21009KT M01/M02 A3012 RMK A01 T10081023  RH  090%=      5-min Rain = 0
KHE1 131307Z 21009KT M01/M02 A3012 RMK A01 T10081023  RH  090%=      5-min Rain = 0
KHE1 131308Z 21009KT M01/M02 A3012 RMK A01 T10081023  RH  090%=      5-min Rain = 0
KHE1 131309Z 21009KT M01/M02 A3012 RMK A01 T10091024  RH  090%=      5-min Rain = 0
KHE1 131310Z 21009KT M01/M02 A3012 RMK A01 T10091024  RH  090%=      5-min Rain = 0
KHE1 131311Z 22008KT M01/M02 A3012 RMK A01 T10091023  RH  090%=      5-min Rain = 0
KHE1 131312Z 22008KT M01/M02 A3012 RMK A01 T10091023  RH  090%=      5-min Rain = 0
KHE1 131313Z 22008KT M01/M02 A3012 RMK A01 T10091023  RH  090%=      5-min Rain = 0
KHE1 131314Z 22009KT M01/M02 A3012 RMK A01 T10101023  RH  090%=      5-min Rain = 0
KHE1 131315Z 21009KT M01/M02 A3012 RMK A01 T10101023  RH  090%=      5-min Rain = 0
KHE1 131316Z 22009KT M01/M02 A3012 RMK A01 T10101024  RH  090%=      5-min Rain = 0
KHE1 131317Z 22009KT M01/M02 A3012 RMK A01 T10101023  RH  090%=      5-min Rain = 0
KHE1 131318Z 22008KT M01/M02 A3012 RMK A01 T10091023  RH  090%=      5-min Rain = 0
KHE1 131319Z 22008KT M01/M02 A3012 RMK A01 T10091023  RH  090%=      5-min Rain = 0
KHE1 131320Z 22008KT M01/M02 A3012 RMK A01 T10091023  RH  090%=      5-min Rain = 0
KHE1 131321Z 21008KT M01/M02 A3012 RMK A01 T10091023  RH  090%=      5-min Rain = 0
KHE1 131322Z 22008KT M01/M02 A3012 RMK A01 T10091023  RH  090%=      5-min Rain = 0
KHE1 131323Z 22008KT M01/M02 A3012 RMK A01 T10091023  RH  090%=      5-min Rain = 0
KHE1 131324Z 22008KT M01/M02 A3012 RMK A01 T10091023  RH  090%=      5-min Rain = 0
KHE1 131325Z 22008KT M01/M02 A3012 RMK A01 T10091023  RH  090%=      5-min Rain = 0
KHE1 131326Z 22008KT M01/M02 A3012 RMK A01 T10101023  RH  090%=      5-min Rain = 0
KHE1 131327Z 22008KT M01/M02 A3012 RMK A01 T10101024  RH  090%=      5-min Rain = 0
KHE1 131328Z 22008KT M01/M02 A3012 RMK A01 T10101023  RH  090%=      5-min Rain = 0
KHE1 131329Z 22008KT M01/M02 A3012 RMK A01 T10101023  RH  090%=      5-min Rain = 0
KHE1 131330Z 22008KT M01/M02 A3012 RMK A01 T10101024  RH  090%=      5-min Rain = 0
KHE1 131331Z 22008KT M01/M02 A3012 RMK A01 T10101024  RH  090%=      5-min Rain = 0
KHE1 131332Z 22008KT M01/M02 A3012 RMK A01 T10101024  RH  090%=      5-min Rain = 0
KHE1 131333Z 22007KT M01/M02 A3012 RMK A01 T10101024  RH  090%=      5-min Rain = 0
KHE1 131334Z 21008KT M01/M02 A3012 RMK A01 T10101023  RH  090%=      5-min Rain = 0
KHE1 131335Z 22007KT M01/M02 A3012 RMK A01 T10101024  RH  090%=      5-min Rain = 0
KHE1 131336Z 22008KT M01/M02 A3012 RMK A01 T10101024  RH  091%=      5-min Rain = 0
KHE1 131337Z 22007KT M01/M02 A3012 RMK A01 T10101024  RH  091%=      5-min Rain = 0
KHE1 131338Z 22008KT M01/M02 A3012 RMK A01 T10101024  RH  090%=      5-min Rain = 0
KHE1 131339Z 22008KT M01/M02 A3012 RMK A01 T10101024  RH  090%=      5-min Rain = 0
KHE1 131340Z 21009KT M01/M02 A3012 RMK A01 T10101024  RH  090%=      5-min Rain = 0
KHE1 131341Z 21009KT M01/M02 A3012 RMK A01 T10101024  RH  090%=      5-min Rain = 0
KHE1 131342Z 21008KT M01/M02 A3012 RMK A01 T10101024  RH  090%=      5-min Rain = 0
KHE1 131343Z 22009KT M01/M02 A3012 RMK A01 T10101024  RH  090%=      5-min Rain = 0
KHE1 131344Z 22009KT M01/M02 A3012 RMK A01 T10101024  RH  090%=      5-min Rain = 0
KHE1 131345Z 22009KT M01/M02 A3012 RMK A01 T10091024  RH  090%=      5-min Rain = 0
KHE1 131346Z 21009KT M01/M02 A3012 RMK A01 T10101024  RH  090%=      5-min Rain = 0
KHE1 131347Z 22009KT M01/M02 A3012 RMK A01 T10091024  RH  090%=      5-min Rain = 0
KHE1 131348Z 22008KT M01/M02 A3012 RMK A01 T10091024  RH  090%=      5-min Rain = 0
KHE1 131349Z 22009KT M01/M02 A3012 RMK A01 T10091024  RH  090%=      5-min Rain = 0
KHE1 131350Z 22009KT M01/M02 A3011 RMK A01 T10081024  RH  089%=      5-min Rain = 0
KHE1 131351Z 22009KT M01/M02 A3011 RMK A01 T10081024  RH  089%=      5-min Rain = 0
KHE1 131352Z 21009KT M01/M02 A3011 RMK A01 T10081024  RH  089%=      5-min Rain = 0
KHE1 131353Z 21009KT M01/M02 A3011 RMK A01 T10081023  RH  089%=      5-min Rain = 0
KHE1 131354Z 21009KT M01/M02 A3011 RMK A01 T10081024  RH  089%=      5-min Rain = 0
KHE1 131355Z 21009KT M01/M02 A3011 RMK A01 T10081024  RH  089%=      5-min Rain = 0
KHE1 131356Z 22008KT M01/M02 A3011 RMK A01 T10071023  RH  089%=      5-min Rain = 0
KHE1 131357Z 21009KT M01/M02 A3011 RMK A01 T10071024  RH  089%=      5-min Rain = 0
KHE1 131358Z 21010KT M01/M02 A3011 RMK A01 T10071023  RH  089%=      5-min Rain = 0
KHE1 131359Z 22010KT M01/M02 A3011 RMK A01 T10071023  RH  089%=      5-min Rain = 0
KHE1 131400Z 22010KT M01/M02 A3011 RMK A01 T10061023  RH  088%=      5-min Rain = 0
KHE1 131401Z 22009KT M01/M02 A3011 RMK A01 T10061023  RH  088%=      5-min Rain = 0
KHE1 131402Z 22011KT M01/M02 A3011 RMK A01 T10051022  RH  088%=      5-min Rain = 0
KHE1 131403Z 22010KT M01/M02 A3011 RMK A01 T10051022  RH  088%=      5-min Rain = 0
KHE1 131404Z 22011KT M00/M02 A3011 RMK A01 T10041022  RH  088%=      5-min Rain = 0
KHE1 131405Z 22011KT M00/M02 A3011 RMK A01 T10031022  RH  087%=      5-min Rain = 0
KHE1 131406Z 22011KT M00/M02 A3011 RMK A01 T10031022  RH  087%=      5-min Rain = 0
KHE1 131407Z 21011KT M00/M02 A3011 RMK A01 T10021022  RH  086%=      5-min Rain = 0
KHE1 131408Z 22010KT M00/M02 A3011 RMK A01 T10021022  RH  086%=      5-min Rain = 0
KHE1 131409Z 22010KT M00/M02 A301 RMK A01 T10021022  RH  086%=      5-min Rain = 0
KHE1 131410Z 22011KT M00/M02 A301 RMK A01 T10021022  RH  086%=      5-min Rain = 0
KHE1 131411Z 21012KT M00/M02 A301 RMK A01 T10021022  RH  086%=      5-min Rain = 0
KHE1 131412Z 21012KT M00/M02 A301 RMK A01 T10011021  RH  086%=      5-min Rain = 0
KHE1 131413Z 22011KT 00/02 A301 RMK A01 T00000-21  RH  085%=      5-min Rain = 0
KHE1 131414Z 21011KT 00/02 A301 RMK A01 T00000-22  RH  085%=      5-min Rain = 0
KHE1 131415Z 21012KT 00/M02 A301 RMK A01 T00011021  RH  085%=      5-min Rain = 0
KHE1 131416Z 22012KT 00/M02 A301 RMK A01 T00011021  RH  085%=      5-min Rain = 0
KHE1 131417Z 22011KT 00/M02 A301 RMK A01 T00011021  RH  085%=      5-min Rain = 0
KHE1 131418Z 22012KT 00/M02 A301 RMK A01 T00011021  RH  085%=      5-min Rain = 0
KHE1 131419Z 22012KT 00/M02 A301 RMK A01 T00021021  RH  085%=      5-min Rain = 0
KHE1 131420Z 22011KT 00/M02 A301 RMK A01 T00031021  RH  084%=      5-min Rain = 0
KHE1 131421Z 22012KT 00/M02 A301 RMK A01 T00031021  RH  084%=      5-min Rain = 0
KHE1 131422Z 22011KT 00/M02 A301 RMK A01 T00031021  RH  084%=      5-min Rain = 0
KHE1 131423Z 22012KT 00/M02 A301 RMK A01 T00041021  RH  083%=      5-min Rain = 0
KHE1 131424Z 22012KT 01/M02 A301 RMK A01 T00051021  RH  083%=      5-min Rain = 0
KHE1 131425Z 22011KT 01/M02 A301 RMK A01 T00051021  RH  083%=      5-min Rain = 0
KHE1 131426Z 22011KT 01/M02 A301 RMK A01 T00051021  RH  083%=      5-min Rain = 0
KHE1 131427Z 22011KT 01/M02 A301 RMK A01 T00051021  RH  083%=      5-min Rain = 0
KHE1 131428Z 22011KT 01/M02 A301 RMK A01 T00051020  RH  083%=      5-min Rain = 0
KHE1 131429Z 22011KT 01/M02 A301 RMK A01 T00051021  RH  083%=      5-min Rain = 0
KHE1 131430Z 22010KT 01/M02 A301 RMK A01 T00061020  RH  083%=      5-min Rain = 0
KHE1 131431Z 22011KT 01/M02 A301 RMK A01 T00061020  RH  082%=      5-min Rain = 0
KHE1 131432Z 22011KT 01/M02 A301 RMK A01 T00071021  RH  082%=      5-min Rain = 0
KHE1 131433Z 22011KT 01/M02 A301 RMK A01 T00081020  RH  081%=      5-min Rain = 0
KHE1 131434Z 22012KT 01/M02 A301 RMK A01 T00081020  RH  081%=      5-min Rain = 0
KHE1 131435Z 22012KT 01/M02 A301 RMK A01 T00091021  RH  080%=      5-min Rain = 0
KHE1 131436Z 22013KT 01/M02 A301 RMK A01 T00101021  RH  079%=      5-min Rain = 0
KHE1 131437Z 23012KT 01/M02 A301 RMK A01 T00121021  RH  079%=      5-min Rain = 0
KHE1 131438Z 22012KT 01/M02 A301 RMK A01 T00111021  RH  079%=      5-min Rain = 0
KHE1 131439Z 22013KT 01/M02 A301 RMK A01 T00121021  RH  079%=      5-min Rain = 0
KHE1 131440Z 22013KT 01/M02 A301 RMK A01 T00121021  RH  079%=      5-min Rain = 0
KHE1 131441Z 22012KT 01/M02 A301 RMK A01 T00121021  RH  079%=      5-min Rain = 0
KHE1 131442Z 22012KT 01/M02 A301 RMK A01 T00121021  RH  079%=      5-min Rain = 0
KHE1 131443Z 22011KT 01/M02 A301 RMK A01 T00121020  RH  080%=      5-min Rain = 0
KHE1 131444Z 22011KT 01/M02 A301 RMK A01 T00111018  RH  081%=      5-min Rain = 0
KHE1 131445Z 22011KT 01/M02 A301 RMK A01 T00111018  RH  081%=      5-min Rain = 0
KHE1 131446Z 22012KT 01/M02 A301 RMK A01 T00111018  RH  081%=      5-min Rain = 0
KHE1 131447Z 22013KT 01/M02 A301 RMK A01 T00111018  RH  081%=      5-min Rain = 0
KHE1 131448Z 22012KT 01/M02 A301 RMK A01 T00111018  RH  081%=      5-min Rain = 0
KHE1 131449Z 22013KT 01/M02 A301 RMK A01 T00111018  RH  081%=      5-min Rain = 0
KHE1 131450Z 22014KT 01/M02 A301 RMK A01 T00121018  RH  080%=      5-min Rain = 0
KHE1 131451Z 22013KT 01/M02 A301 RMK A01 T00121019  RH  079%=      5-min Rain = 0
KHE1 131452Z 22012KT 01/M02 A301 RMK A01 T00131018  RH  080%=      5-min Rain = 0
KHE1 131453Z 22012KT 01/M02 A301 RMK A01 T00131019  RH  080%=      5-min Rain = 0
KHE1 131454Z 22012KT 01/M02 A301 RMK A01 T00131018  RH  080%=      5-min Rain = 0
KHE1 131455Z 22013KT 01/M02 A301 RMK A01 T00141018  RH  080%=      5-min Rain = 0
KHE1 131456Z 22011KT 01/M02 A301 RMK A01 T00141018  RH  079%=      5-min Rain = 0
KHE1 131457Z 22012KT 01/M02 A301 RMK A01 T00141017  RH  080%=      5-min Rain = 0
KHE1 131458Z 22012KT 01/M02 A301 RMK A01 T00141017  RH  080%=      5-min Rain = 0
KHE1 131459Z 22013KT 01/M02 A301 RMK A01 T00141016  RH  081%=      5-min Rain = 0
KHE1 131500Z 22014KT 01/M02 A301 RMK A01 T00141017  RH  080%=      5-min Rain = 0
KHE1 131501Z 22013KT 01/M02 A301 RMK A01 T00141017  RH  079%=      5-min Rain = 0
KHE1 131502Z 22013KT 02/M02 A301 RMK A01 T00151017  RH  079%=      5-min Rain = 0
KHE1 131503Z 22014KT 02/M02 A301 RMK A01 T00151017  RH  080%=      5-min Rain = 0
KHE1 131504Z 22012KT 02/M02 A301 RMK A01 T00151017  RH  079%=      5-min Rain = 0
KHE1 131505Z 22012KT 02/M02 A301 RMK A01 T00151016  RH  080%=      5-min Rain = 0
KHE1 131506Z 22012KT 02/M02 A301 RMK A01 T00151017  RH  079%=      5-min Rain = 0
KHE1 131507Z 22012KT 02/M02 A301 RMK A01 T00161016  RH  080%=      5-min Rain = 0
KHE1 131508Z 22012KT 02/M02 A301 RMK A01 T00161016  RH  080%=      5-min Rain = 0
KHE1 131509Z 22010KT 02/M02 A301 RMK A01 T00161016  RH  079%=      5-min Rain = 0
KHE1 131510Z 22012KT 02/M02 A301 RMK A01 T00171016  RH  079%=      5-min Rain = 0
KHE1 131511Z 22010KT 02/M02 A301 RMK A01 T00171016  RH  079%=      5-min Rain = 0
KHE1 131512Z 22011KT 02/M02 A301 RMK A01 T00171015  RH  079%=      5-min Rain = 0
KHE1 131513Z 22012KT 02/M02 A301 RMK A01 T00181015  RH  079%=      5-min Rain = 0
KHE1 131514Z 22011KT 02/M02 A301 RMK A01 T00181016  RH  078%=      5-min Rain = 0
KHE1 131515Z 22011KT 02/M01 A301 RMK A01 T00181014  RH  079%=      5-min Rain = 0
KHE1 131516Z 22012KT 02/M02 A301 RMK A01 T00191015  RH  078%=      5-min Rain = 0
KHE1 131517Z 22012KT 02/M02 A301 RMK A01 T00191015  RH  078%=      5-min Rain = 0
KHE1 131518Z 22012KT 02/M01 A301 RMK A01 T00191014  RH  078%=      5-min Rain = 0
KHE1 131519Z 22013KT 02/M02 A301 RMK A01 T00191015  RH  078%=      5-min Rain = 0
KHE1 131520Z 23013KT 02/M02 A301 RMK A01 T00191015  RH  078%=      5-min Rain = 0
KHE1 131521Z 23012KT 02/M02 A301 RMK A01 T00201015  RH  078%=      5-min Rain = 0
KHE1 131522Z 23013KT 02/M01 A301 RMK A01 T00201014  RH  078%=      5-min Rain = 0
KHE1 131523Z 23013KT 02/M02 A301 RMK A01 T00211015  RH  077%=      5-min Rain = 0
KHE1 131524Z 23012KT 02/M01 A301 RMK A01 T00221013  RH  078%=      5-min Rain = 0
KHE1 131525Z 23013KT 02/M01 A301 RMK A01 T00231013  RH  077%=      5-min Rain = 0
KHE1 131526Z 23013KT 02/M01 A301 RMK A01 T00241013  RH  077%=      5-min Rain = 0
KHE1 131527Z 22012KT 02/M01 A301 RMK A01 T00241013  RH  077%=      5-min Rain = 0
KHE1 131528Z 23012KT 03/M01 A301 RMK A01 T00251012  RH  077%=      5-min Rain = 0
KHE1 131529Z 22013KT 03/M01 A301 RMK A01 T00251013  RH  076%=      5-min Rain = 0
KHE1 131530Z 23013KT 03/M01 A3009 RMK A01 T00251013  RH  076%=      5-min Rain = 0
KHE1 131531Z 22012KT 03/M01 A3009 RMK A01 T00251012  RH  077%=      5-min Rain = 0
KHE1 131532Z 22012KT 03/M01 A3009 RMK A01 T00251011  RH  077%=      5-min Rain = 0
KHE1 131533Z 22012KT 03/M01 A3009 RMK A01 T00251011  RH  077%=      5-min Rain = 0
KHE1 131534Z 22012KT 03/M01 A3009 RMK A01 T00261010  RH  077%=      5-min Rain = 0
KHE1 131535Z 22013KT 03/M01 A3009 RMK A01 T00261011  RH  076%=      5-min Rain = 0
KHE1 131536Z 22014KT 03/M01 A3009 RMK A01 T00261012  RH  076%=      5-min Rain = 0
KHE1 131537Z 22014KT 03/M01 A3009 RMK A01 T00261012  RH  076%=      5-min Rain = 0
KHE1 131538Z 22013KT 03/M01 A3009 RMK A01 T00261011  RH  076%=      5-min Rain = 0
KHE1 131539Z 22012KT 03/M01 A3009 RMK A01 T00271010  RH  077%=      5-min Rain = 0
KHE1 131540Z 22013KT 03/M01 A3009 RMK A01 T00271009  RH  077%=      5-min Rain = 0
KHE1 131541Z 22013KT 03/M01 A3009 RMK A01 T00281010  RH  076%=      5-min Rain = 0
KHE1 131542Z 22013KT 03/M01 A3009 RMK A01 T00281010  RH  076%=      5-min Rain = 0
KHE1 131543Z 22013KT 03/M01 A3009 RMK A01 T00291009  RH  076%=      5-min Rain = 0
KHE1 131544Z 22014KT 03/M01 A3009 RMK A01 T00301010  RH  075%=      5-min Rain = 0
KHE1 131545Z 22013KT 03/M01 A3009 RMK A01 T00301010  RH  075%=      5-min Rain = 0
KHE1 131546Z 22014KT 03/M01 A3009 RMK A01 T00311010  RH  075%=      5-min Rain = 0
KHE1 131547Z 22014KT 03/M01 A3009 RMK A01 T00311010  RH  074%=      5-min Rain = 0
KHE1 131548Z 22012KT 03/M01 A3009 RMK A01 T00321008  RH  075%=      5-min Rain = 0
KHE1 131549Z 22013KT 03/M01 A3009 RMK A01 T00321009  RH  075%=      5-min Rain = 0
KHE1 131550Z 22014KT 03/M01 A3009 RMK A01 T00341006  RH  075%=      5-min Rain = 0
KHE1 131551Z 22013KT 03/M01 A301 RMK A01 T00341007  RH  075%=      5-min Rain = 0
KHE1 131552Z 23013KT 03/M01 A301 RMK A01 T00341007  RH  074%=      5-min Rain = 0
KHE1 131553Z 22012KT 04/M01 A301 RMK A01 T00351007  RH  074%=      5-min Rain = 0
KHE1 131554Z 23012KT 04/M01 A301 RMK A01 T00351005  RH  075%=      5-min Rain = 0
KHE1 131555Z 22011KT 04/M01 A301 RMK A01 T00361007  RH  074%=      5-min Rain = 0
KHE1 131556Z 22013KT 04/M01 A301 RMK A01 T00361006  RH  074%=      5-min Rain = 0
KHE1 131557Z 23012KT 04/M01 A301 RMK A01 T00361008  RH  073%=      5-min Rain = 0
KHE1 131558Z 23010KT 04/M01 A301 RMK A01 T00371005  RH  074%=      5-min Rain = 0
KHE1 131559Z 23010KT 04/M00 A301 RMK A01 T00381002  RH  075%=      5-min Rain = 0
KHE1 131600Z 22011KT 04/M00 A301 RMK A01 T00381004  RH  074%=      5-min Rain = 0
KHE1 131601Z 22013KT 04/M01 A301 RMK A01 T00381005  RH  073%=      5-min Rain = 0
KHE1 131602Z 23012KT 04/M01 A301 RMK A01 T00381007  RH  073%=      5-min Rain = 0
KHE1 131603Z 23011KT 04/M00 A301 RMK A01 T00391003  RH  074%=      5-min Rain = 0
KHE1 131604Z 23011KT 04/M00 A301 RMK A01 T00401002  RH  074%=      5-min Rain = 0
KHE1 131605Z 22013KT 04/M00 A301 RMK A01 T00401003  RH  073%=      5-min Rain = 0
KHE1 131606Z 22013KT 04/M01 A3009 RMK A01 T00411006  RH  072%=      5-min Rain = 0
KHE1 131607Z 23012KT 04/M01 A3009 RMK A01 T00391007  RH  072%=      5-min Rain = 0
KHE1 131608Z 22013KT 04/M01 A3009 RMK A01 T00391006  RH  073%=      5-min Rain = 0
KHE1 131609Z 22013KT 04/M01 A3009 RMK A01 T00391005  RH  073%=      5-min Rain = 0
KHE1 131610Z 22013KT 04/M00 A3009 RMK A01 T00411002  RH  073%=      5-min Rain = 0
KHE1 131611Z 22014KT 04/M01 A3009 RMK A01 T00421005  RH  072%=      5-min Rain = 0
KHE1 131612Z 22012KT 04/M00 A3009 RMK A01 T00421004  RH  072%=      5-min Rain = 0
KHE1 131613Z 22015KT 04/M01 A3009 RMK A01 T00421006  RH  071%=      5-min Rain = 0
KHE1 131614Z 22014KT 04/M01 A3009 RMK A01 T00421006  RH  071%=      5-min Rain = 0
KHE1 131615Z 22012KT 04/M00 A3009 RMK A01 T00431004  RH  071%=      5-min Rain = 0
KHE1 131616Z 22012KT 05/00 A3009 RMK A01 T004500-0  RH  073%=      5-min Rain = 0
KHE1 131617Z 22014KT 05/M00 A3009 RMK A01 T00461003  RH  071%=      5-min Rain = 0
KHE1 131618Z 22013KT 05/M00 A3009 RMK A01 T00461003  RH  070%=      5-min Rain = 0
KHE1 131619Z 22011KT 05/M01 A3009 RMK A01 T00461005  RH  069%=      5-min Rain = 0
KHE1 131620Z 22009KT 05/00 A3009 RMK A01 T00480002  RH  072%=      5-min Rain = 0
KHE1 131621Z 22010KT 05/01 A3009 RMK A01 T00500007  RH  074%=      5-min Rain = 0
KHE1 131622Z 22012KT 05/00 A3009 RMK A01 T00510004  RH  072%=      5-min Rain = 0
KHE1 131623Z 23014KT 05/00 A3009 RMK A01 T00520003  RH  071%=      5-min Rain = 0
KHE1 131624Z 22015KT 05/M00 A3009 RMK A01 T00521002  RH  068%=      5-min Rain = 0
KHE1 131625Z 23015KT 05/M01 A3009 RMK A01 T00511006  RH  066%=      5-min Rain = 0
KHE1 131626Z 23013KT 05/M00 A3009 RMK A01 T00511004  RH  068%=      5-min Rain = 0
KHE1 131627Z 23016KT 05/M00 A3009 RMK A01 T00511003  RH  068%=      5-min Rain = 0
KHE1 131628Z 23017KT 05/M01 A3009 RMK A01 T00521007  RH  066%=      5-min Rain = 0
KHE1 131629Z 23014KT 05/M01 A3009 RMK A01 T00511007  RH  066%=      5-min Rain = 0
KHE1 131630Z 23017KT 05/M00 A3009 RMK A01 T00511004  RH  067%=      5-min Rain = 0
KHE1 131631Z 23017KT 05/M01 A3009 RMK A01 T00511005  RH  067%=      5-min Rain = 0
KHE1 131632Z 23014KT 05/M01 A3009 RMK A01 T00501005  RH  067%=      5-min Rain = 0
KHE1 131633Z 23015KT 05/M00 A3009 RMK A01 T00511001  RH  069%=      5-min Rain = 0
KHE1 131634Z 24015KT 05/M00 A3009 RMK A01 T00521001  RH  069%=      5-min Rain = 0
KHE1 131635Z 23014KT 05/00 A3009 RMK A01 T00520000  RH  069%=      5-min Rain = 0
KHE1 131636Z 24015KT 05/00 A3009 RMK A01 T00530001  RH  069%=      5-min Rain = 0
KHE1 131637Z 24015KT 05/M00 A3009 RMK A01 T00531001  RH  068%=      5-min Rain = 0
KHE1 131638Z 23013KT 05/00 A3009 RMK A01 T005200-0  RH  069%=      5-min Rain = 0
KHE1 131639Z 23014KT 05/00 A3009 RMK A01 T00520001  RH  070%=      5-min Rain = 0
KHE1 131640Z 23015KT 05/00 A3009 RMK A01 T005200-0  RH  069%=      5-min Rain = 0
KHE1 131641Z 23015KT 05/00 A3009 RMK A01 T00520001  RH  070%=      5-min Rain = 0
KHE1 131642Z 23014KT 05/00 A3009 RMK A01 T00520000  RH  069%=      5-min Rain = 0
KHE1 131643Z 23014KT 05/00 A3009 RMK A01 T00520001  RH  069%=      5-min Rain = 0
KHE1 131644Z 22011KT 05/00 A3008 RMK A01 T00520002  RH  070%=      5-min Rain = 0
KHE1 131645Z 23013KT 05/01 A3008 RMK A01 T00520005  RH  071%=      5-min Rain = 0
KHE1 131646Z 23013KT 05/00 A3008 RMK A01 T00540003  RH  070%=      5-min Rain = 0
KHE1 131647Z 22014KT 06/00 A3008 RMK A01 T00550003  RH  069%=      5-min Rain = 0
KHE1 131648Z 23012KT 06/00 A3008 RMK A01 T00560003  RH  069%=      5-min Rain = 0
KHE1 131649Z 22011KT 06/01 A3008 RMK A01 T00580009  RH  071%=      5-min Rain = 0
KHE1 131650Z 22010KT 06/01 A3008 RMK A01 T00590011  RH  071%=      5-min Rain = 0
KHE1 131651Z 22011KT 06/01 A3008 RMK A01 T00610011  RH  071%=      5-min Rain = 0
KHE1 131652Z 22011KT 06/01 A3008 RMK A01 T00610010  RH  070%=      5-min Rain = 0
KHE1 131653Z 22011KT 06/01 A3008 RMK A01 T00620014  RH  071%=      5-min Rain = 0
KHE1 131654Z 23011KT 06/01 A3009 RMK A01 T00630009  RH  068%=      5-min Rain = 0
KHE1 131655Z 22011KT 06/01 A3009 RMK A01 T00630012  RH  070%=      5-min Rain = 0
KHE1 131656Z 22012KT 06/01 A3009 RMK A01 T00630009  RH  068%=      5-min Rain = 0
KHE1 131657Z 22013KT 06/01 A3009 RMK A01 T00630008  RH  068%=      5-min Rain = 0
KHE1 131658Z 23013KT 06/01 A3009 RMK A01 T00620006  RH  067%=      5-min Rain = 0
KHE1 131659Z 22012KT 06/01 A3009 RMK A01 T00620006  RH  067%=      5-min Rain = 0
KHE1 131700Z 22013KT 06/01 A3009 RMK A01 T00620005  RH  067%=      5-min Rain = 0
KHE1 131701Z 22013KT 06/01 A3009 RMK A01 T00620006  RH  068%=      5-min Rain = 0
KHE1 131702Z 22013KT 06/01 A3008 RMK A01 T00620007  RH  068%=      5-min Rain = 0
KHE1 131703Z 22013KT 06/01 A3008 RMK A01 T00620009  RH  068%=      5-min Rain = 0
KHE1 131704Z 22011KT 07/01 A3008 RMK A01 T00650013  RH  069%=      5-min Rain = 0
KHE1 131705Z 22010KT 07/02 A3008 RMK A01 T00670016  RH  070%=      5-min Rain = 0
KHE1 131706Z 22010KT 07/02 A3008 RMK A01 T00700020  RH  071%=      5-min Rain = 0
KHE1 131707Z 22012KT 07/02 A3008 RMK A01 T00710016  RH  068%=      5-min Rain = 0
KHE1 131708Z 22012KT 07/01 A3008 RMK A01 T00700012  RH  067%=      5-min Rain = 0
KHE1 131709Z 23012KT 07/02 A3008 RMK A01 T00710015  RH  068%=      5-min Rain = 0
KHE1 131710Z 22011KT 07/01 A3007 RMK A01 T00710013  RH  067%=      5-min Rain = 0
KHE1 131711Z 22012KT 07/02 A3007 RMK A01 T00710017  RH  068%=      5-min Rain = 0
KHE1 131712Z 22012KT 07/01 A3007 RMK A01 T00730014  RH  066%=      5-min Rain = 0
KHE1 131713Z 22012KT 07/02 A3007 RMK A01 T00740019  RH  068%=      5-min Rain = 0
KHE1 131714Z 21013KT 08/02 A3007 RMK A01 T00750018  RH  067%=      5-min Rain = 0
KHE1 131715Z 22011KT 08/02 A3007 RMK A01 T00750019  RH  068%=      5-min Rain = 0
KHE1 131716Z 22012KT 08/02 A3006 RMK A01 T00750018  RH  067%=      5-min Rain = 0
KHE1 131717Z 22013KT 08/02 A3006 RMK A01 T00750018  RH  067%=      5-min Rain = 0
KHE1 131718Z 22012KT 07/01 A3006 RMK A01 T00740014  RH  066%=      5-min Rain = 0
KHE1 131719Z 22012KT 07/01 A3006 RMK A01 T00730014  RH  066%=      5-min Rain = 0
KHE1 131720Z 22012KT 07/02 A3006 RMK A01 T00730015  RH  067%=      5-min Rain = 0
KHE1 131721Z 22013KT 07/02 A3006 RMK A01 T00740020  RH  069%=      5-min Rain = 0
KHE1 131722Z 22013KT 07/02 A3006 RMK A01 T00740018  RH  067%=      5-min Rain = 0
KHE1 131723Z 22015KT 08/02 A3006 RMK A01 T00750017  RH  067%=      5-min Rain = 0
KHE1 131724Z 22014KT 08/02 A3006 RMK A01 T00760015  RH  065%=      5-min Rain = 0
KHE1 131725Z 22015KT 08/01 A3006 RMK A01 T00760014  RH  065%=      5-min Rain = 0
KHE1 131726Z 22015KT 08/01 A3006 RMK A01 T00760013  RH  064%=      5-min Rain = 0
KHE1 131727Z 22014KT 08/01 A3006 RMK A01 T00760013  RH  065%=      5-min Rain = 0
KHE1 131728Z 22015KT 08/02 A3006 RMK A01 T00760016  RH  066%=      5-min Rain = 0
KHE1 131729Z 22014KT 08/01 A3006 RMK A01 T00770013  RH  064%=      5-min Rain = 0
KHE1 131730Z 22014KT 08/02 A3006 RMK A01 T00770016  RH  066%=      5-min Rain = 0
KHE1 131731Z 22014KT 08/02 A3006 RMK A01 T00770015  RH  065%=      5-min Rain = 0
KHE1 131732Z 22014KT 08/01 A3006 RMK A01 T00780014  RH  064%=      5-min Rain = 0
KHE1 131733Z 22015KT 08/01 A3005 RMK A01 T00780014  RH  064%=      5-min Rain = 0
KHE1 131734Z 22014KT 08/01 A3005 RMK A01 T00790010  RH  062%=      5-min Rain = 0
KHE1 131735Z 22014KT 08/01 A3005 RMK A01 T00780012  RH  063%=      5-min Rain = 0
KHE1 131736Z 22014KT 08/01 A3005 RMK A01 T00790014  RH  063%=      5-min Rain = 0
KHE1 131737Z 22015KT 08/01 A3005 RMK A01 T00790013  RH  063%=      5-min Rain = 0
KHE1 131738Z 22015KT 08/01 A3005 RMK A01 T00780010  RH  062%=      5-min Rain = 0
KHE1 131739Z 22014KT 08/02 A3005 RMK A01 T00780017  RH  065%=      5-min Rain = 0
KHE1 131740Z 22014KT 08/02 A3005 RMK A01 T00790016  RH  064%=      5-min Rain = 0
KHE1 131741Z 22015KT 08/02 A3005 RMK A01 T00800015  RH  064%=      5-min Rain = 0
KHE1 131742Z 21014KT 08/01 A3005 RMK A01 T00790014  RH  063%=      5-min Rain = 0
KHE1 131743Z 21015KT 08/02 A3005 RMK A01 T00790015  RH  064%=      5-min Rain = 0
KHE1 131744Z 22014KT 08/01 A3005 RMK A01 T00780014  RH  064%=      5-min Rain = 0
KHE1 131745Z 21015KT 08/01 A3005 RMK A01 T00780014  RH  064%=      5-min Rain = 0
KHE1 131746Z 22014KT 08/02 A3005 RMK A01 T00790016  RH  064%=      5-min Rain = 0
KHE1 131747Z 22012KT 08/02 A3005 RMK A01 T00830022  RH  066%=      5-min Rain = 0
KHE1 131748Z 23014KT 09/02 A3005 RMK A01 T00860022  RH  064%=      5-min Rain = 0
KHE1 131749Z 23014KT 09/02 A3005 RMK A01 T00870016  RH  061%=      5-min Rain = 0
KHE1 131750Z 22014KT 09/02 A3005 RMK A01 T00870018  RH  062%=      5-min Rain = 0
KHE1 131751Z 22014KT 09/02 A3005 RMK A01 T00880017  RH  061%=      5-min Rain = 0
KHE1 131752Z 22011KT 09/02 A3005 RMK A01 T00880021  RH  063%=      5-min Rain = 0
KHE1 131753Z 23012KT 09/03 A3005 RMK A01 T00900025  RH  064%=      5-min Rain = 0
KHE1 131754Z 23013KT 09/02 A3005 RMK A01 T00900017  RH  060%=      5-min Rain = 0
KHE1 131755Z 22013G18KT 09/02 A3005 RMK A01 T00900023  RH  062%=      5-min Rain = 0
KHE1 131756Z 22015KT 09/02 A3005 RMK A01 T00920021  RH  061%=      5-min Rain = 0
KHE1 131757Z 22015KT 09/02 A3004 RMK A01 T00930018  RH  060%=      5-min Rain = 0
KHE1 131758Z 22014KT 09/02 A3004 RMK A01 T00930016  RH  059%=      5-min Rain = 0
KHE1 131759Z 23012KT 09/02 A3004 RMK A01 T00940024  RH  062%=      5-min Rain = 0
KHE1 131800Z 22014KT 10/02 A3004 RMK A01 T00970024  RH  060%=      5-min Rain = 0
KHE1 131801Z 22015KT 10/02 A3004 RMK A01 T00970020  RH  059%=      5-min Rain = 0
KHE1 131802Z 22015KT 10/02 A3004 RMK A01 T00960017  RH  058%=      5-min Rain = 0
KHE1 131803Z 23013KT 10/02 A3004 RMK A01 T00960021  RH  059%=      5-min Rain = 0
KHE1 131804Z 22015KT 10/02 A3004 RMK A01 T00970021  RH  059%=      5-min Rain = 0
KHE1 131805Z 22015KT 10/02 A3004 RMK A01 T00970018  RH  058%=      5-min Rain = 0
KHE1 131806Z 22015KT 10/02 A3004 RMK A01 T00970016  RH  057%=      5-min Rain = 0
KHE1 131807Z 21014KT 10/02 A3004 RMK A01 T00970019  RH  058%=      5-min Rain = 0
KHE1 131808Z 22014KT 10/02 A3004 RMK A01 T00980020  RH  059%=      5-min Rain = 0
KHE1 131809Z 22015KT 10/02 A3004 RMK A01 T00960016  RH  058%=      5-min Rain = 0
KHE1 131810Z 22014KT 09/02 A3004 RMK A01 T00940017  RH  059%=      5-min Rain = 0
KHE1 131811Z 22013KT 09/02 A3004 RMK A01 T00930018  RH  059%=      5-min Rain = 0
KHE1 131812Z 23013KT 09/02 A3004 RMK A01 T00940023  RH  061%=      5-min Rain = 0
KHE1 131813Z 22013KT 10/02 A3003 RMK A01 T00950022  RH  060%=      5-min Rain = 0
KHE1 131814Z 23011KT 10/03 A3003 RMK A01 T00990027  RH  061%=      5-min Rain = 0
KHE1 131815Z 23012KT 10/03 A3003 RMK A01 T01020028  RH  060%=      5-min Rain = 0
KHE1 131816Z 23013KT 11/03 A3003 RMK A01 T01050026  RH  058%=      5-min Rain = 0
KHE1 131817Z 23014KT 11/03 A3003 RMK A01 T01060028  RH  058%=      5-min Rain = 0
KHE1 131818Z 23014KT 11/03 A3003 RMK A01 T01090026  RH  056%=      5-min Rain = 0
KHE1 131819Z 22015KT 11/03 A3003 RMK A01 T01110027  RH  056%=      5-min Rain = 0
KHE1 131820Z 22016KT 11/02 A3002 RMK A01 T01110021  RH  054%=      5-min Rain = 0
KHE1 131821Z 22017KT 11/02 A3002 RMK A01 T01090016  RH  053%=      5-min Rain = 0
KHE1 131822Z 22014KT 11/02 A3002 RMK A01 T01080024  RH  056%=      5-min Rain = 0
KHE1 131823Z 22017KT 11/02 A3002 RMK A01 T01100022  RH  055%=      5-min Rain = 0
KHE1 131824Z 22017KT 11/02 A3002 RMK A01 T01100018  RH  053%=      5-min Rain = 0
KHE1 131825Z 22015KT 11/02 A3001 RMK A01 T01100020  RH  054%=      5-min Rain = 0
KHE1 131826Z 22013KT 11/03 A3001 RMK A01 T01100027  RH  057%=      5-min Rain = 0
KHE1 131827Z 22016KT 11/02 A3001 RMK A01 T01110020  RH  054%=      5-min Rain = 0
KHE1 131828Z 22017KT 11/01 A3001 RMK A01 T01080014  RH  052%=      5-min Rain = 0
KHE1 131829Z 22016KT 11/02 A3001 RMK A01 T01070016  RH  053%=      5-min Rain = 0
KHE1 131830Z 22015KT 11/02 A3001 RMK A01 T01060019  RH  055%=      5-min Rain = 0
KHE1 131831Z 22015KT 11/02 A3001 RMK A01 T01080019  RH  054%=      5-min Rain = 0
KHE1 131832Z 23017KT 11/02 A3001 RMK A01 T01100016  RH  052%=      5-min Rain = 0
KHE1 131833Z 23014KT 11/01 A3001 RMK A01 T01100012  RH  051%=      5-min Rain = 0
KHE1 131834Z 23015KT 11/02 A3001 RMK A01 T01100016  RH  052%=      5-min Rain = 0
KHE1 131835Z 23016KT 11/01 A3001 RMK A01 T01100012  RH  051%=      5-min Rain = 0
KHE1 131836Z 23017KT 11/01 A3001 RMK A01 T01110010  RH  050%=      5-min Rain = 0
KHE1 131837Z 23016KT 11/01 A3001 RMK A01 T01110011  RH  050%=      5-min Rain = 0
KHE1 131838Z 23014KT 11/01 A3001 RMK A01 T01120010  RH  050%=      5-min Rain = 0
KHE1 131839Z 23015KT 11/02 A3001 RMK A01 T01130015  RH  051%=      5-min Rain = 0
KHE1 131840Z 23015KT 11/02 A3001 RMK A01 T01130015  RH  051%=      5-min Rain = 0
KHE1 131841Z 22014KT 11/02 A3001 RMK A01 T01140017  RH  051%=      5-min Rain = 0
KHE1 131842Z 22015KT 11/02 A3001 RMK A01 T01140017  RH  051%=      5-min Rain = 0
KHE1 131843Z 23013KT 11/02 A3001 RMK A01 T01140018  RH  052%=      5-min Rain = 0
KHE1 131844Z 23015KT 11/02 A3001 RMK A01 T01140018  RH  051%=      5-min Rain = 0
KHE1 131845Z 24014KT 12/02 A3001 RMK A01 T01150018  RH  051%=      5-min Rain = 0
KHE1 131846Z 23014KT 12/02 A3001 RMK A01 T01150016  RH  050%=      5-min Rain = 0
KHE1 131847Z 23013KT 11/02 A30 RMK A01 T01140017  RH  051%=      5-min Rain = 0
KHE1 131848Z 23013KT 11/02 A30 RMK A01 T01140019  RH  052%=      5-min Rain = 0
KHE1 131849Z 23013KT 11/02 A30 RMK A01 T01120022  RH  054%=      5-min Rain = 0
KHE1 131850Z 23012KT 11/02 A30 RMK A01 T01120020  RH  053%=      5-min Rain = 0
KHE1 131851Z 23013KT 11/02 A30 RMK A01 T01120016  RH  052%=      5-min Rain = 0
KHE1 131852Z 23015KT 11/01 A30 RMK A01 T01120011  RH  050%=      5-min Rain = 0
KHE1 131853Z 23013KT 11/01 A30 RMK A01 T01130010  RH  049%=      5-min Rain = 0
KHE1 131854Z 23014KT 12/01 A30 RMK A01 T01150012  RH  049%=      5-min Rain = 0
KHE1 131855Z 23013KT 12/02 A30 RMK A01 T01170017  RH  050%=      5-min Rain = 0
KHE1 131856Z 23012KT 12/02 A30 RMK A01 T01180018  RH  050%=      5-min Rain = 0
KHE1 131857Z 22012KT 12/03 A2999 RMK A01 T01210025  RH  052%=      5-min Rain = 0
KHE1 131858Z 22012KT 12/02 A2999 RMK A01 T01230023  RH  050%=      5-min Rain = 0
KHE1 131859Z 22012KT 12/02 A2999 RMK A01 T01230021  RH  050%=      5-min Rain = 0
KHE1 131900Z 23012KT 12/02 A2999 RMK A01 T01230019  RH  049%=      5-min Rain = 0
KHE1 131901Z 23013KT 12/02 A2999 RMK A01 T01240022  RH  050%=      5-min Rain = 0
KHE1 131902Z 23014KT 13/02 A2999 RMK A01 T01250016  RH  047%=      5-min Rain = 0
KHE1 131903Z 22015KT 13/01 A2999 RMK A01 T01250014  RH  047%=      5-min Rain = 0
KHE1 131904Z 23014KT 13/02 A2999 RMK A01 T01250019  RH  048%=      5-min Rain = 0
KHE1 131905Z 23014KT 13/01 A2998 RMK A01 T01260012  RH  046%=      5-min Rain = 0
KHE1 131906Z 23014KT 13/01 A2998 RMK A01 T01260012  RH  046%=      5-min Rain = 0
KHE1 131907Z 22013KT 13/02 A2998 RMK A01 T01260016  RH  047%=      5-min Rain = 0
KHE1 131908Z 22014KT 13/02 A2998 RMK A01 T01270019  RH  048%=      5-min Rain = 0
KHE1 131909Z 22015KT 13/02 A2998 RMK A01 T01280016  RH  046%=      5-min Rain = 0
KHE1 131910Z 23014KT 13/01 A2998 RMK A01 T01270014  RH  046%=      5-min Rain = 0
KHE1 131911Z 24015KT 13/02 A2998 RMK A01 T01270015  RH  046%=      5-min Rain = 0
KHE1 131912Z 24015KT 13/01 A2998 RMK A01 T01280009  RH  044%=      5-min Rain = 0
KHE1 131913Z 23013KT 13/02 A2998 RMK A01 T01290018  RH  047%=      5-min Rain = 0
KHE1 131914Z 23014KT 13/02 A2998 RMK A01 T01300019  RH  047%=      5-min Rain = 0
KHE1 131915Z 23012KT 13/02 A2998 RMK A01 T01300016  RH  046%=      5-min Rain = 0
KHE1 131916Z 23014KT 13/02 A2998 RMK A01 T01310024  RH  048%=      5-min Rain = 0
KHE1 131917Z 23017KT 13/02 A2997 RMK A01 T01330016  RH  045%=      5-min Rain = 0
KHE1 131918Z 24013KT 13/01 A2997 RMK A01 T01310006  RH  042%=      5-min Rain = 0
KHE1 131919Z 24013KT 13/02 A2997 RMK A01 T01320022  RH  047%=      5-min Rain = 0
KHE1 131920Z 23013KT 13/02 A2997 RMK A01 T01330019  RH  046%=      5-min Rain = 0
KHE1 131921Z 22013KT 13/02 A2997 RMK A01 T01330015  RH  045%=      5-min Rain = 0
KHE1 131922Z 23015KT 13/02 A2997 RMK A01 T01320015  RH  045%=      5-min Rain = 0
KHE1 131923Z 23015KT 13/01 A2997 RMK A01 T01310010  RH  043%=      5-min Rain = 0
KHE1 131924Z 22015KT 13/01 A2997 RMK A01 T01310012  RH  044%=      5-min Rain = 0
KHE1 131925Z 22015KT 13/01 A2997 RMK A01 T01310011  RH  044%=      5-min Rain = 0
KHE1 131926Z 23014KT 13/02 A2997 RMK A01 T01310016  RH  045%=      5-min Rain = 0
KHE1 131927Z 23014KT 13/02 A2997 RMK A01 T01330015  RH  045%=      5-min Rain = 0
KHE1 131928Z 23013KT 13/02 A2997 RMK A01 T01330016  RH  045%=      5-min Rain = 0
KHE1 131929Z 23011KT 13/02 A2997 RMK A01 T01340018  RH  045%=      5-min Rain = 0
KHE1 131930Z 23014KT 14/02 A2997 RMK A01 T01350018  RH  045%=      5-min Rain = 0
KHE1 131931Z 23013KT 14/02 A2996 RMK A01 T01350016  RH  044%=      5-min Rain = 0
KHE1 131932Z 23013KT 14/02 A2996 RMK A01 T01360024  RH  047%=      5-min Rain = 0
KHE1 131933Z 22013KT 14/02 A2996 RMK A01 T01370022  RH  046%=      5-min Rain = 0
KHE1 131934Z 23015KT 14/02 A2996 RMK A01 T01370019  RH  045%=      5-min Rain = 0
KHE1 131935Z 23015KT 14/01 A2996 RMK A01 T01370011  RH  042%=      5-min Rain = 0
KHE1 131936Z 23015KT 14/01 A2996 RMK A01 T01370006  RH  041%=      5-min Rain = 0
KHE1 131937Z 23015KT 14/01 A2996 RMK A01 T01360010  RH  042%=      5-min Rain = 0
KHE1 131938Z 23017KT 14/01 A2996 RMK A01 T01360006  RH  041%=      5-min Rain = 0
KHE1 131939Z 22015KT 14/01 A2996 RMK A01 T01360006  RH  041%=      5-min Rain = 0
KHE1 131940Z 22016KT 14/01 A2995 RMK A01 T01360006  RH  041%=      5-min Rain = 0
KHE1 131941Z 22015KT 14/01 A2995 RMK A01 T01360010  RH  042%=      5-min Rain = 0
KHE1 131942Z 22016KT 14/01 A2995 RMK A01 T01360014  RH  043%=      5-min Rain = 0
KHE1 131943Z 23016KT 14/01 A2995 RMK A01 T01380010  RH  042%=      5-min Rain = 0
KHE1 131944Z 22015KT 14/01 A2995 RMK A01 T01370008  RH  041%=      5-min Rain = 0
KHE1 131945Z 22015KT 14/01 A2995 RMK A01 T01380008  RH  041%=      5-min Rain = 0
KHE1 131946Z 22015KT 14/01 A2995 RMK A01 T01380008  RH  041%=      5-min Rain = 0
KHE1 131947Z 22014KT 14/02 A2995 RMK A01 T01390020  RH  044%=      5-min Rain = 0
KHE1 131948Z 22014KT 14/01 A2995 RMK A01 T01400012  RH  042%=      5-min Rain = 0
KHE1 131949Z 22013KT 14/02 A2995 RMK A01 T01400024  RH  046%=      5-min Rain = 0
KHE1 131950Z 21013KT 14/02 A2995 RMK A01 T01410016  RH  043%=      5-min Rain = 0
KHE1 131951Z 21014KT 14/02 A2994 RMK A01 T01390016  RH  043%=      5-min Rain = 0
KHE1 131952Z 22014KT 14/02 A2995 RMK A01 T01380018  RH  044%=      5-min Rain = 0
KHE1 131953Z 22013KT 14/02 A2994 RMK A01 T01380017  RH  044%=      5-min Rain = 0
KHE1 131954Z 21012KT 14/02 A2994 RMK A01 T01390022  RH  045%=      5-min Rain = 0
KHE1 131955Z 21012KT 14/02 A2994 RMK A01 T01410022  RH  045%=      5-min Rain = 0
KHE1 131956Z 21013KT 14/02 A2994 RMK A01 T01420017  RH  043%=      5-min Rain = 0
KHE1 131957Z 22014KT 14/02 A2994 RMK A01 T01420019  RH  043%=      5-min Rain = 0
KHE1 131958Z 22015KT 14/01 A2994 RMK A01 T01430012  RH  041%=      5-min Rain = 0
KHE1 131959Z 22016KT 14/01 A2994 RMK A01 T01430011  RH  040%=      5-min Rain = 0
KHE1 132000Z 22014KT 14/01 A2994 RMK A01 T01440007  RH  039%=      5-min Rain = 0
KHE1 132001Z 22013KT 14/01 A2994 RMK A01 T01440014  RH  041%=      5-min Rain = 0
KHE1 132002Z 22012KT 14/01 A2994 RMK A01 T01440012  RH  041%=      5-min Rain = 0
KHE1 132003Z 22014KT 14/02 A2994 RMK A01 T01440017  RH  042%=      5-min Rain = 0
KHE1 132004Z 22014KT 14/02 A2994 RMK A01 T01440017  RH  042%=      5-min Rain = 0
KHE1 132005Z 22015KT 15/01 A2994 RMK A01 T01450008  RH  039%=      5-min Rain = 0
KHE1 132006Z 22015KT 14/01 A2994 RMK A01 T01440010  RH  040%=      5-min Rain = 0
KHE1 132007Z 22014KT 14/01 A2994 RMK A01 T01440011  RH  040%=      5-min Rain = 0
KHE1 132008Z 22014KT 14/01 A2994 RMK A01 T01440011  RH  040%=      5-min Rain = 0
KHE1 132009Z 22013KT 15/01 A2993 RMK A01 T01450012  RH  040%=      5-min Rain = 0
KHE1 132010Z 22013KT 15/02 A2993 RMK A01 T01450015  RH  041%=      5-min Rain = 0
KHE1 132011Z 21014KT 15/02 A2993 RMK A01 T01460020  RH  042%=      5-min Rain = 0
KHE1 132012Z 21015KT 15/02 A2993 RMK A01 T01480018  RH  041%=      5-min Rain = 0
KHE1 132013Z 22016KT 15/02 A2993 RMK A01 T01490016  RH  040%=      5-min Rain = 0
KHE1 132014Z 22015KT 15/01 A2993 RMK A01 T01490006  RH  038%=      5-min Rain = 0
KHE1 132015Z 21014KT 15/01 A2993 RMK A01 T01480010  RH  039%=      5-min Rain = 0
KHE1 132016Z 21015KT 15/01 A2993 RMK A01 T01480010  RH  039%=      5-min Rain = 0
KHE1 132017Z 22015KT 15/01 A2993 RMK A01 T01480012  RH  040%=      5-min Rain = 0
KHE1 132018Z 22015KT 15/00 A2993 RMK A01 T01480002  RH  037%=      5-min Rain = 0
KHE1 132019Z 23016KT 15/01 A2993 RMK A01 T01470006  RH  038%=      5-min Rain = 0
KHE1 132020Z 23015KT 15/01 A2993 RMK A01 T01470007  RH  038%=      5-min Rain = 0
KHE1 132021Z 22016KT 15/01 A2993 RMK A01 T01480005  RH  038%=      5-min Rain = 0
KHE1 132022Z 22018KT 15/00 A2993 RMK A01 T01480001  RH  037%=      5-min Rain = 0
KHE1 132023Z 22017KT 15/M00 A2993 RMK A01 T01481003  RH  036%=      5-min Rain = 0
KHE1 132024Z 22014KT 15/00 A2993 RMK A01 T01470002  RH  037%=      5-min Rain = 0
KHE1 132025Z 22014KT 15/01 A2993 RMK A01 T01480009  RH  039%=      5-min Rain = 0
KHE1 132026Z 22014KT 15/02 A2993 RMK A01 T01490016  RH  041%=      5-min Rain = 0
KHE1 132027Z 22015KT 15/01 A2993 RMK A01 T01500014  RH  040%=      5-min Rain = 0
KHE1 132028Z 22014KT 15/02 A2993 RMK A01 T01510021  RH  042%=      5-min Rain = 0
KHE1 132029Z 23016KT 15/01 A2993 RMK A01 T01510008  RH  038%=      5-min Rain = 0
KHE1 132030Z 23015KT 15/01 A2993 RMK A01 T01500013  RH  039%=      5-min Rain = 0
KHE1 132031Z 22015KT 15/01 A2993 RMK A01 T01500011  RH  039%=      5-min Rain = 0
KHE1 132032Z 22014KT 15/02 A2993 RMK A01 T01510015  RH  040%=      5-min Rain = 0
KHE1 132033Z 22016KT 15/01 A2993 RMK A01 T01510013  RH  039%=      5-min Rain = 0
KHE1 132034Z 22015KT 15/01 A2993 RMK A01 T01510009  RH  038%=      5-min Rain = 0
KHE1 132035Z 22014G19KT 15/01 A2993 RMK A01 T01510014  RH  040%=      5-min Rain = 0
KHE1 132036Z 22016KT 15/01 A2993 RMK A01 T01510008  RH  038%=      5-min Rain = 0
KHE1 132037Z 23015KT 15/01 A2993 RMK A01 T01520008  RH  038%=      5-min Rain = 0
KHE1 132038Z 22014KT 15/01 A2993 RMK A01 T01520013  RH  039%=      5-min Rain = 0
KHE1 132039Z 22013KT 15/02 A2993 RMK A01 T01520016  RH  040%=      5-min Rain = 0
KHE1 132040Z 21013KT 15/02 A2993 RMK A01 T01520017  RH  040%=      5-min Rain = 0
KHE1 132041Z 21012KT 15/02 A2993 RMK A01 T01520017  RH  040%=      5-min Rain = 0
KHE1 132042Z 22012KT 15/03 A2993 RMK A01 T01520027  RH  043%=      5-min Rain = 0
KHE1 132043Z 22015KT 15/02 A2993 RMK A01 T01530017  RH  040%=      5-min Rain = 0
KHE1 132044Z 22014KT 15/02 A2993 RMK A01 T01530018  RH  040%=      5-min Rain = 0
KHE1 132045Z 22015KT 15/02 A2993 RMK A01 T01530018  RH  040%=      5-min Rain = 0
KHE1 132046Z 22014KT 15/02 A2993 RMK A01 T01520015  RH  039%=      5-min Rain = 0
KHE1 132047Z 22012KT 15/02 A2993 RMK A01 T01520020  RH  041%=      5-min Rain = 0
KHE1 132048Z 22015KT 15/02 A2993 RMK A01 T01520021  RH  041%=      5-min Rain = 0
KHE1 132049Z 23015KT 15/02 A2993 RMK A01 T01520018  RH  040%=      5-min Rain = 0
KHE1 132050Z 22016KT 15/02 A2993 RMK A01 T01530020  RH  041%=      5-min Rain = 0
KHE1 132051Z 22015KT 15/02 A2993 RMK A01 T01530019  RH  041%=      5-min Rain = 0
KHE1 132052Z 22015KT 15/02 A2993 RMK A01 T01520018  RH  040%=      5-min Rain = 0
KHE1 132053Z 22015KT 15/02 A2993 RMK A01 T01520017  RH  040%=      5-min Rain = 0
KHE1 132054Z 21013KT 15/02 A2992 RMK A01 T01520024  RH  042%=      5-min Rain = 0
KHE1 132055Z 21012KT 15/03 A2992 RMK A01 T01530028  RH  043%=      5-min Rain = 0
KHE1 132056Z 22013KT 15/03 A2992 RMK A01 T01540027  RH  043%=      5-min Rain = 0
KHE1 132057Z 21013KT 15/03 A2992 RMK A01 T01530025  RH  042%=      5-min Rain = 0
KHE1 132058Z 22017KT 15/02 A2991 RMK A01 T01530023  RH  041%=      5-min Rain = 0
KHE1 132059Z 22018KT 15/02 A2991 RMK A01 T01530015  RH  039%=      5-min Rain = 0
KHE1 132100Z 22017KT 15/01 A2991 RMK A01 T01530014  RH  039%=      5-min Rain = 0
KHE1 132101Z 22015KT 15/01 A2991 RMK A01 T01530014  RH  039%=      5-min Rain = 0
KHE1 132102Z 21014KT 15/02 A2991 RMK A01 T01530019  RH  040%=      5-min Rain = 0
KHE1 132103Z 21012KT 15/02 A2991 RMK A01 T01530022  RH  041%=      5-min Rain = 0
KHE1 132104Z 21014KT 15/03 A2991 RMK A01 T01530026  RH  042%=      5-min Rain = 0
KHE1 132105Z 20015KT 15/02 A2991 RMK A01 T01540024  RH  042%=      5-min Rain = 0
KHE1 132106Z 20014KT 15/03 A2991 RMK A01 T01540027  RH  043%=      5-min Rain = 0
KHE1 132107Z 20015KT 15/03 A2991 RMK A01 T01530034  RH  045%=      5-min Rain = 0
KHE1 132108Z 19016KT 15/03 A299 RMK A01 T01510031  RH  044%=      5-min Rain = 0
KHE1 132109Z 19017KT 15/03 A299 RMK A01 T01500032  RH  045%=      5-min Rain = 0
KHE1 132110Z 19015KT 15/03 A299 RMK A01 T01490030  RH  045%=      5-min Rain = 0
KHE1 132111Z 19015KT 15/03 A299 RMK A01 T01480033  RH  046%=      5-min Rain = 0
KHE1 132112Z 19014KT 15/03 A299 RMK A01 T01480031  RH  045%=      5-min Rain = 0
KHE1 132113Z 19015KT 15/04 A299 RMK A01 T01490036  RH  047%=      5-min Rain = 0
KHE1 132114Z 19014KT 15/03 A299 RMK A01 T01490034  RH  046%=      5-min Rain = 0
KHE1 132115Z 19014KT 15/04 A299 RMK A01 T01500035  RH  046%=      5-min Rain = 0
KHE1 132116Z 20015KT 15/03 A299 RMK A01 T01500033  RH  046%=      5-min Rain = 0
KHE1 132117Z 20015KT 15/03 A299 RMK A01 T01500032  RH  045%=      5-min Rain = 0
KHE1 132118Z 20013KT 15/03 A299 RMK A01 T01500032  RH  045%=      5-min Rain = 0
KHE1 132119Z 19013KT 15/04 A299 RMK A01 T01500036  RH  046%=      5-min Rain = 0
KHE1 132120Z 20013KT 15/04 A299 RMK A01 T01510041  RH  048%=      5-min Rain = 0
KHE1 132121Z 19015KT 15/04 A299 RMK A01 T01520036  RH  046%=      5-min Rain = 0
KHE1 132122Z 19015KT 15/03 A299 RMK A01 T01510032  RH  045%=      5-min Rain = 0
KHE1 132123Z 20011KT 15/04 A299 RMK A01 T01500038  RH  047%=      5-min Rain = 0
KHE1 132124Z 20012KT 15/04 A299 RMK A01 T01510042  RH  048%=      5-min Rain = 0
KHE1 132125Z 20015KT 15/04 A299 RMK A01 T01520042  RH  048%=      5-min Rain = 0
KHE1 132126Z 20017KT 15/03 A299 RMK A01 T01520032  RH  045%=      5-min Rain = 0
KHE1 132127Z 20016KT 15/03 A299 RMK A01 T01510030  RH  044%=      5-min Rain = 0
KHE1 132128Z 20015KT 15/03 A299 RMK A01 T01500031  RH  045%=      5-min Rain = 0
KHE1 132129Z 20015KT 15/03 A299 RMK A01 T01500034  RH  046%=      5-min Rain = 0
KHE1 132130Z 19014KT 15/03 A299 RMK A01 T01500034  RH  046%=      5-min Rain = 0
KHE1 132131Z 20017KT 15/03 A299 RMK A01 T01510031  RH  044%=      5-min Rain = 0
KHE1 132132Z 20014KT 15/03 A299 RMK A01 T01510032  RH  045%=      5-min Rain = 0
KHE1 132133Z 20017KT 15/03 A299 RMK A01 T01510030  RH  044%=      5-min Rain = 0
KHE1 132134Z 20014KT 15/03 A299 RMK A01 T01510030  RH  044%=      5-min Rain = 0
KHE1 132135Z 19013KT 15/04 A299 RMK A01 T01500037  RH  047%=      5-min Rain = 0
KHE1 132136Z 20014KT 15/03 A299 RMK A01 T01510033  RH  045%=      5-min Rain = 0
KHE1 132137Z 20013KT 15/04 A299 RMK A01 T01510039  RH  047%=      5-min Rain = 0
KHE1 132138Z 20013KT 15/04 A299 RMK A01 T01520038  RH  046%=      5-min Rain = 0
KHE1 132139Z 20011KT 15/04 A299 RMK A01 T01520042  RH  048%=      5-min Rain = 0
KHE1 132140Z 20016KT 15/04 A299 RMK A01 T01530037  RH  046%=      5-min Rain = 0
KHE1 132141Z 20016KT 15/03 A299 RMK A01 T01520032  RH  045%=      5-min Rain = 0
KHE1 132142Z 19018KT 15/03 A299 RMK A01 T01520031  RH  044%=      5-min Rain = 0
KHE1 132143Z 20016KT 15/03 A299 RMK A01 T01510031  RH  044%=      5-min Rain = 0
KHE1 132144Z 20017KT 15/03 A2989 RMK A01 T01510033  RH  045%=      5-min Rain = 0
KHE1 132145Z 20016KT 15/03 A2989 RMK A01 T01510029  RH  044%=      5-min Rain = 0
KHE1 132146Z 20014KT 15/03 A2989 RMK A01 T01510034  RH  045%=      5-min Rain = 0
KHE1 132147Z 20015KT 15/04 A2989 RMK A01 T01510036  RH  046%=      5-min Rain = 0
KHE1 132148Z 20015KT 15/04 A2989 RMK A01 T01510038  RH  047%=      5-min Rain = 0
KHE1 132149Z 20017KT 15/03 A2989 RMK A01 T01510034  RH  046%=      5-min Rain = 0
KHE1 132150Z 20016KT 15/03 A2989 RMK A01 T01510032  RH  045%=      5-min Rain = 0
KHE1 132151Z 20016KT 15/03 A2989 RMK A01 T01500031  RH  045%=      5-min Rain = 0
KHE1 132152Z 20015KT 15/03 A2989 RMK A01 T01500030  RH  044%=      5-min Rain = 0
KHE1 132153Z 20018KT 15/03 A2989 RMK A01 T01500030  RH  044%=      5-min Rain = 0
KHE1 132154Z 20016KT 15/03 A2989 RMK A01 T01500029  RH  044%=      5-min Rain = 0
KHE1 132155Z 20013KT 15/04 A2989 RMK A01 T01490038  RH  047%=      5-min Rain = 0
KHE1 132156Z 20014KT 15/04 A2989 RMK A01 T01490037  RH  047%=      5-min Rain = 0
KHE1 132157Z 20012KT 15/04 A2989 RMK A01 T01490037  RH  047%=      5-min Rain = 0
KHE1 132158Z 20013KT 15/04 A2989 RMK A01 T01500041  RH  048%=      5-min Rain = 0
KHE1 132159Z 20014KT 15/04 A2989 RMK A01 T01500038  RH  047%=      5-min Rain = 0
KHE1 132200Z 20014KT 15/04 A2989 RMK A01 T01500037  RH  047%=      5-min Rain = 0
KHE1 132201Z 20017KT 15/04 A2989 RMK A01 T01490035  RH  046%=      5-min Rain = 0
KHE1 132202Z 20015KT 15/03 A2989 RMK A01 T01480034  RH  046%=      5-min Rain = 0
KHE1 132203Z 20015KT 15/04 A2989 RMK A01 T01480035  RH  047%=      5-min Rain = 0
KHE1 132204Z 20017KT 15/04 A2989 RMK A01 T01480035  RH  047%=      5-min Rain = 0
KHE1 132205Z 20017KT 15/03 A2989 RMK A01 T01480030  RH  045%=      5-min Rain = 0
KHE1 132206Z 20016KT 15/03 A2989 RMK A01 T01470031  RH  046%=      5-min Rain = 0
KHE1 132207Z 20016KT 15/03 A2989 RMK A01 T01470033  RH  046%=      5-min Rain = 0
KHE1 132208Z 20016KT 15/03 A2989 RMK A01 T01460034  RH  047%=      5-min Rain = 0
KHE1 132209Z 20016KT 15/03 A2989 RMK A01 T01460034  RH  047%=      5-min Rain = 0
KHE1 132210Z 20014KT 15/04 A2989 RMK A01 T01460035  RH  047%=      5-min Rain = 0
KHE1 132211Z 20013KT 15/04 A2989 RMK A01 T01450037  RH  048%=      5-min Rain = 0
KHE1 132212Z 20015KT 15/03 A2989 RMK A01 T01460033  RH  047%=      5-min Rain = 0
KHE1 132213Z 20013KT 15/04 A2989 RMK A01 T01450038  RH  048%=      5-min Rain = 0
KHE1 132214Z 19015KT 15/04 A2989 RMK A01 T01450038  RH  048%=      5-min Rain = 0
KHE1 132215Z 20016KT 15/03 A2989 RMK A01 T01450033  RH  047%=      5-min Rain = 0
KHE1 132216Z 20015KT 15/03 A2989 RMK A01 T01450034  RH  047%=      5-min Rain = 0
KHE1 132217Z 20015KT 15/04 A2989 RMK A01 T01450035  RH  048%=      5-min Rain = 0
KHE1 132218Z 20016KT 15/03 A2989 RMK A01 T01450034  RH  047%=      5-min Rain = 0
KHE1 132219Z 20018KT 14/03 A2989 RMK A01 T01440027  RH  045%=      5-min Rain = 0
KHE1 132220Z 20016KT 14/03 A2989 RMK A01 T01440028  RH  045%=      5-min Rain = 0
KHE1 132221Z 20015KT 14/03 A2989 RMK A01 T01440034  RH  048%=      5-min Rain = 0
KHE1 132222Z 20017KT 14/03 A2989 RMK A01 T01440032  RH  047%=      5-min Rain = 0
KHE1 132223Z 20016KT 14/03 A2989 RMK A01 T01430032  RH  047%=      5-min Rain = 0
KHE1 132224Z 20015KT 14/03 A2989 RMK A01 T01430031  RH  047%=      5-min Rain = 0
KHE1 132225Z 20016KT 14/03 A2989 RMK A01 T01430030  RH  047%=      5-min Rain = 0
KHE1 132226Z 20014KT 14/03 A2989 RMK A01 T01420032  RH  047%=      5-min Rain = 0
KHE1 132227Z 20015KT 14/03 A2989 RMK A01 T01420032  RH  047%=      5-min Rain = 0
KHE1 132228Z 21016KT 14/03 A2989 RMK A01 T01420030  RH  047%=      5-min Rain = 0
KHE1 132229Z 21014KT 14/03 A2989 RMK A01 T01420032  RH  047%=      5-min Rain = 0
KHE1 132230Z 21015KT 14/03 A2989 RMK A01 T01420034  RH  048%=      5-min Rain = 0
KHE1 132231Z 21015KT 14/03 A2989 RMK A01 T01420032  RH  048%=      5-min Rain = 0
KHE1 132232Z 20016KT 14/03 A2989 RMK A01 T01420033  RH  048%=      5-min Rain = 0
KHE1 132233Z 20017KT 14/03 A2989 RMK A01 T01420034  RH  048%=      5-min Rain = 0
KHE1 132234Z 20015KT 14/04 A2989 RMK A01 T01420035  RH  048%=      5-min Rain = 0
KHE1 132235Z 20015KT 14/04 A2989 RMK A01 T01410037  RH  050%=      5-min Rain = 0
KHE1 132236Z 20014KT 14/04 A2989 RMK A01 T01410036  RH  049%=      5-min Rain = 0
KHE1 132237Z 20013KT 14/04 A2989 RMK A01 T01410039  RH  050%=      5-min Rain = 0
KHE1 132238Z 20015KT 14/04 A2989 RMK A01 T01410038  RH  050%=      5-min Rain = 0
KHE1 132239Z 20014KT 14/04 A2989 RMK A01 T01410036  RH  049%=      5-min Rain = 0
KHE1 132240Z 20015KT 14/04 A2989 RMK A01 T01410038  RH  050%=      5-min Rain = 0
KHE1 132241Z 20015KT 14/04 A2989 RMK A01 T01410036  RH  049%=      5-min Rain = 0
KHE1 132242Z 20013KT 14/04 A2989 RMK A01 T01410037  RH  050%=      5-min Rain = 0
KHE1 132243Z 20014KT 14/04 A2989 RMK A01 T01410040  RH  050%=      5-min Rain = 0
KHE1 132244Z 20014KT 14/04 A2989 RMK A01 T01400038  RH  050%=      5-min Rain = 0
KHE1 132245Z 20014KT 14/04 A2989 RMK A01 T01400039  RH  050%=      5-min Rain = 0
KHE1 132246Z 20014KT 14/04 A2989 RMK A01 T01390040  RH  051%=      5-min Rain = 0
KHE1 132247Z 20014KT 14/04 A2989 RMK A01 T01390040  RH  051%=      5-min Rain = 0
KHE1 132248Z 20013KT 14/04 A2989 RMK A01 T01390040  RH  051%=      5-min Rain = 0
KHE1 132249Z 19014KT 14/04 A2989 RMK A01 T01390041  RH  052%=      5-min Rain = 0
KHE1 132250Z 20013KT 14/04 A2989 RMK A01 T01380041  RH  052%=      5-min Rain = 0
KHE1 132251Z 20015KT 14/04 A2989 RMK A01 T01380039  RH  051%=      5-min Rain = 0
KHE1 132252Z 20014KT 14/04 A2989 RMK A01 T01380039  RH  051%=      5-min Rain = 0
KHE1 132253Z 20013KT 14/04 A2989 RMK A01 T01370040  RH  052%=      5-min Rain = 0
KHE1 132254Z 20014KT 14/04 A2989 RMK A01 T01370040  RH  052%=      5-min Rain = 0
KHE1 132255Z 20014KT 14/04 A2989 RMK A01 T01370040  RH  052%=      5-min Rain = 0
KHE1 132256Z 20014KT 14/04 A2989 RMK A01 T01360040  RH  052%=      5-min Rain = 0
KHE1 132257Z 20013KT 14/04 A2989 RMK A01 T01360041  RH  053%=      5-min Rain = 0
KHE1 132258Z 19014KT 14/04 A2989 RMK A01 T01350041  RH  053%=      5-min Rain = 0
KHE1 132259Z 20014KT 14/04 A2989 RMK A01 T01350040  RH  052%=      5-min Rain = 0
KHE1 132300Z 20014KT 14/04 A2989 RMK A01 T01350039  RH  052%=      5-min Rain = 0
KHE1 132301Z 20014KT 14/04 A2989 RMK A01 T01350040  RH  053%=      5-min Rain = 0
KHE1 132302Z 20013KT 13/04 A2989 RMK A01 T01340040  RH  053%=      5-min Rain = 0
KHE1 132303Z 20014KT 13/04 A2989 RMK A01 T01340041  RH  053%=      5-min Rain = 0
KHE1 132304Z 20013KT 13/04 A2989 RMK A01 T01330041  RH  054%=      5-min Rain = 0
KHE1 132305Z 20013KT 13/04 A2989 RMK A01 T01320041  RH  054%=      5-min Rain = 0
KHE1 132306Z 20014KT 13/04 A2989 RMK A01 T01320040  RH  054%=      5-min Rain = 0
KHE1 132307Z 19014KT 13/04 A2989 RMK A01 T01320041  RH  054%=      5-min Rain = 0
KHE1 132308Z 20015KT 13/04 A2989 RMK A01 T01310040  RH  054%=      5-min Rain = 0
KHE1 132309Z 19014KT 13/04 A2989 RMK A01 T01310040  RH  054%=      5-min Rain = 0
KHE1 132310Z 19014KT 13/04 A2989 RMK A01 T01300041  RH  055%=      5-min Rain = 0
KHE1 132311Z 20014KT 13/04 A2989 RMK A01 T01300041  RH  055%=      5-min Rain = 0
KHE1 132312Z 20014KT 13/04 A2989 RMK A01 T01290041  RH  055%=      5-min Rain = 0
KHE1 132313Z 20014KT 13/04 A2989 RMK A01 T01290040  RH  055%=      5-min Rain = 0
KHE1 132314Z 20015KT 13/04 A2989 RMK A01 T01280040  RH  055%=      5-min Rain = 0
KHE1 132315Z 20014KT 13/04 A2989 RMK A01 T01280038  RH  054%=      5-min Rain = 0
KHE1 132316Z 20015KT 13/04 A2989 RMK A01 T01280038  RH  054%=      5-min Rain = 0
KHE1 132317Z 20014KT 13/04 A2989 RMK A01 T01280037  RH  054%=      5-min Rain = 0
KHE1 132318Z 20013KT 13/04 A2988 RMK A01 T01270039  RH  055%=      5-min Rain = 0
KHE1 132319Z 20014KT 13/04 A2988 RMK A01 T01260037  RH  055%=      5-min Rain = 0
KHE1 132320Z 20015KT 13/04 A2988 RMK A01 T01260036  RH  054%=      5-min Rain = 0
KHE1 132321Z 20014KT 13/04 A2988 RMK A01 T01260037  RH  055%=      5-min Rain = 0
KHE1 132322Z 20014KT 13/04 A2988 RMK A01 T01250037  RH  055%=      5-min Rain = 0
KHE1 132323Z 20013KT 12/04 A2988 RMK A01 T01240036  RH  055%=      5-min Rain = 0
KHE1 132324Z 20013KT 12/04 A2988 RMK A01 T01240037  RH  055%=      5-min Rain = 0
KHE1 132325Z 20013KT 12/04 A2988 RMK A01 T01230037  RH  056%=      5-min Rain = 0
KHE1 132326Z 20013KT 12/04 A2988 RMK A01 T01220036  RH  056%=      5-min Rain = 0
KHE1 132327Z 20012KT 12/04 A2988 RMK A01 T01220037  RH  056%=      5-min Rain = 0
KHE1 132328Z 20012KT 12/04 A2988 RMK A01 T01190038  RH  057%=      5-min Rain = 0
KHE1 132329Z 20013KT 12/04 A2988 RMK A01 T01190037  RH  057%=      5-min Rain = 0
KHE1 132330Z 20013KT 12/04 A2988 RMK A01 T01190037  RH  057%=      5-min Rain = 0
KHE1 132331Z 20014KT 12/04 A2988 RMK A01 T01170037  RH  058%=      5-min Rain = 0
KHE1 132332Z 20013KT 12/04 A2988 RMK A01 T01170036  RH  058%=      5-min Rain = 0
KHE1 132333Z 19013KT 12/04 A2988 RMK A01 T01160036  RH  058%=      5-min Rain = 0
KHE1 132334Z 19012KT 12/04 A2988 RMK A01 T01160036  RH  058%=      5-min Rain = 0
KHE1 132335Z 19012KT 12/04 A2988 RMK A01 T01150036  RH  058%=      5-min Rain = 0
KHE1 132336Z 20012KT 12/04 A2988 RMK A01 T01150036  RH  058%=      5-min Rain = 0
KHE1 132337Z 19011KT 11/04 A2988 RMK A01 T01140037  RH  059%=      5-min Rain = 0
KHE1 132338Z 19012KT 11/04 A2988 RMK A01 T01130036  RH  059%=      5-min Rain = 0
KHE1 132339Z 19012KT 11/04 A2988 RMK A01 T01130035  RH  059%=      5-min Rain = 0
KHE1 132340Z 19011KT 11/04 A2988 RMK A01 T01130035  RH  059%=      5-min Rain = 0
KHE1 132341Z 19010KT 11/04 A2988 RMK A01 T01130036  RH  059%=      5-min Rain = 0
KHE1 132342Z 19010KT 11/04 A2988 RMK A01 T01120036  RH  060%=      5-min Rain = 0
KHE1 132343Z 19011KT 11/04 A2988 RMK A01 T01110036  RH  060%=      5-min Rain = 0
KHE1 132344Z 20011KT 11/04 A2988 RMK A01 T01100036  RH  060%=      5-min Rain = 0
KHE1 132345Z 20011KT 11/04 A2988 RMK A01 T01100036  RH  061%=      5-min Rain = 0
KHE1 132346Z 20011KT 11/04 A2988 RMK A01 T01090037  RH  061%=      5-min Rain = 0
KHE1 132347Z 20011KT 11/04 A2988 RMK A01 T01070037  RH  062%=      5-min Rain = 0
KHE1 132348Z 20011KT 11/04 A2988 RMK A01 T01060037  RH  062%=      5-min Rain = 0
KHE1 132349Z 20011KT 11/04 A2988 RMK A01 T01060037  RH  062%=      5-min Rain = 0
KHE1 132350Z 20011KT 11/04 A2988 RMK A01 T01060037  RH  062%=      5-min Rain = 0
KHE1 132351Z 20011KT 11/04 A2988 RMK A01 T01060036  RH  062%=      5-min Rain = 0
KHE1 132352Z 20011KT 11/04 A2988 RMK A01 T01060036  RH  062%=      5-min Rain = 0
KHE1 132353Z 20011KT 11/04 A2988 RMK A01 T01050036  RH  062%=      5-min Rain = 0
KHE1 132354Z 20011KT 11/04 A2988 RMK A01 T01050036  RH  062%=      5-min Rain = 0
KHE1 132355Z 20011KT 10/04 A2988 RMK A01 T01040036  RH  063%=      5-min Rain = 0
KHE1 132356Z 20010KT 10/04 A2988 RMK A01 T01030036  RH  063%=      5-min Rain = 0
KHE1 132357Z 20011KT 10/04 A2988 RMK A01 T01020036  RH  063%=      5-min Rain = 0
KHE1 132358Z 20010KT 10/04 A2988 RMK A01 T01020035  RH  063%=      5-min Rain = 0
KHE1 132359Z 20010KT 10/04 A2988 RMK A01 T01020035  RH  063%=      5-min Rain = 0
KHE1 140000Z 20010KT 10/04 A2988 RMK A01 T01010035  RH  063%=      5-min Rain = 0
KHE1 140001Z 20010KT 10/04 A2988 RMK A01 T01000035  RH  064%=      5-min Rain = 0
KHE1 140002Z 20010KT 10/04 A2988 RMK A01 T01000035  RH  064%=      5-min Rain = 0
KHE1 140003Z 20010KT 10/04 A2988 RMK A01 T01000035  RH  064%=      5-min Rain = 0
KHE1 140004Z 20010KT 10/04 A2988 RMK A01 T01000035  RH  064%=      5-min Rain = 0
KHE1 140005Z 20010KT 10/04 A2988 RMK A01 T00990035  RH  064%=      5-min Rain = 0
KHE1 140006Z 20010KT 10/04 A2988 RMK A01 T00990035  RH  065%=      5-min Rain = 0
KHE1 140007Z 20010KT 10/04 A2988 RMK A01 T00990035  RH  065%=      5-min Rain = 0
KHE1 140008Z 20011KT 10/04 A2988 RMK A01 T00980035  RH  065%=      5-min Rain = 0
KHE1 140009Z 20010KT 10/04 A2988 RMK A01 T00980035  RH  065%=      5-min Rain = 0
KHE1 140010Z 20010KT 10/04 A2988 RMK A01 T00980036  RH  065%=      5-min Rain = 0
KHE1 140011Z 20010KT 10/04 A2988 RMK A01 T00970035  RH  066%=      5-min Rain = 0
KHE1 140012Z 20010KT 10/04 A2988 RMK A01 T00970035  RH  066%=      5-min Rain = 0
KHE1 140013Z 20010KT 10/04 A2988 RMK A01 T00960035  RH  066%=      5-min Rain = 0
KHE1 140014Z 20010KT 10/04 A2988 RMK A01 T00950035  RH  066%=      5-min Rain = 0
KHE1 140015Z 20010KT 09/04 A2988 RMK A01 T00940036  RH  067%=      5-min Rain = 0
KHE1 140016Z 20010KT 09/04 A2988 RMK A01 T00930036  RH  067%=      5-min Rain = 0
KHE1 140017Z 20010KT 09/04 A2988 RMK A01 T00920036  RH  068%=      5-min Rain = 0
KHE1 140018Z 20010KT 09/04 A2988 RMK A01 T00910036  RH  068%=      5-min Rain = 0
KHE1 140019Z 20009KT 09/04 A2988 RMK A01 T00900036  RH  069%=      5-min Rain = 0
KHE1 140020Z 20009KT 09/04 A2987 RMK A01 T00890036  RH  069%=      5-min Rain = 0
KHE1 140021Z 19009KT 09/04 A2987 RMK A01 T00890036  RH  070%=      5-min Rain = 0
KHE1 140022Z 20009KT 09/04 A2987 RMK A01 T00880036  RH  070%=      5-min Rain = 0
KHE1 140023Z 20009KT 09/04 A2987 RMK A01 T00880035  RH  070%=      5-min Rain = 0
KHE1 140024Z 19009KT 09/04 A2987 RMK A01 T00870035  RH  070%=      5-min Rain = 0
KHE1 140025Z 20009KT 09/04 A2987 RMK A01 T00870035  RH  070%=      5-min Rain = 0
KHE1 140026Z 20009KT 09/03 A2987 RMK A01 T00860034  RH  070%=      5-min Rain = 0
KHE1 140027Z 20009KT 09/03 A2987 RMK A01 T00860034  RH  070%=      5-min Rain = 0
KHE1 140028Z 20009KT 09/03 A2987 RMK A01 T00860034  RH  070%=      5-min Rain = 0
KHE1 140029Z 20009KT 09/03 A2987 RMK A01 T00860033  RH  070%=      5-min Rain = 0
KHE1 140030Z 20010KT 09/03 A2987 RMK A01 T00860033  RH  070%=      5-min Rain = 0
KHE1 140031Z 20009KT 09/03 A2987 RMK A01 T00860033  RH  070%=      5-min Rain = 0
KHE1 140032Z 20009KT 09/03 A2987 RMK A01 T00860033  RH  070%=      5-min Rain = 0
KHE1 140033Z 20009KT 09/03 A2987 RMK A01 T00850033  RH  070%=      5-min Rain = 0
KHE1 140034Z 20010KT 08/03 A2987 RMK A01 T00840033  RH  070%=      5-min Rain = 0
KHE1 140035Z 20010KT 08/03 A2987 RMK A01 T00840033  RH  070%=      5-min Rain = 0
KHE1 140036Z 20010KT 08/03 A2987 RMK A01 T00840033  RH  070%=      5-min Rain = 0
KHE1 140037Z 20010KT 08/03 A2987 RMK A01 T00830033  RH  071%=      5-min Rain = 0
KHE1 140038Z 20010KT 08/03 A2987 RMK A01 T00830033  RH  071%=      5-min Rain = 0
KHE1 140039Z 20010KT 08/03 A2987 RMK A01 T00830033  RH  071%=      5-min Rain = 0
KHE1 140040Z 20010KT 08/03 A2987 RMK A01 T00830033  RH  071%=      5-min Rain = 0
KHE1 140041Z 20010KT 08/03 A2987 RMK A01 T00830033  RH  071%=      5-min Rain = 0
KHE1 140042Z 20011KT 08/03 A2987 RMK A01 T00840033  RH  070%=      5-min Rain = 0
KHE1 140043Z 20010KT 09/03 A2987 RMK A01 T00860032  RH  069%=      5-min Rain = 0
KHE1 140044Z 20010KT 09/03 A2987 RMK A01 T00870032  RH  069%=      5-min Rain = 0
KHE1 140045Z 20010KT 09/03 A2987 RMK A01 T00870032  RH  069%=      5-min Rain = 0
KHE1 140046Z 20010KT 09/03 A2987 RMK A01 T00870032  RH  068%=      5-min Rain = 0
KHE1 140047Z 20010KT 09/03 A2987 RMK A01 T00870032  RH  068%=      5-min Rain = 0
KHE1 140048Z 20010KT 09/03 A2987 RMK A01 T00880032  RH  068%=      5-min Rain = 0
KHE1 140049Z 20010KT 09/03 A2987 RMK A01 T00880032  RH  068%=      5-min Rain = 0
KHE1 140050Z 20010KT 09/03 A2987 RMK A01 T00880032  RH  068%=      5-min Rain = 0
KHE1 140051Z 21010KT 09/03 A2987 RMK A01 T00890032  RH  068%=      5-min Rain = 0
KHE1 140052Z 20010KT 09/03 A2987 RMK A01 T00890032  RH  068%=      5-min Rain = 0
KHE1 140053Z 20010KT 09/03 A2987 RMK A01 T00880032  RH  068%=      5-min Rain = 0
KHE1 140054Z 20010KT 09/03 A2987 RMK A01 T00880032  RH  068%=      5-min Rain = 0
KHE1 140055Z 21010KT 09/03 A2987 RMK A01 T00880032  RH  068%=      5-min Rain = 0
KHE1 140056Z 20010KT 09/03 A2987 RMK A01 T00880032  RH  068%=      5-min Rain = 0
KHE1 140057Z 20010KT 09/03 A2987 RMK A01 T00880031  RH  068%=      5-min Rain = 0
KHE1 140058Z 20010KT 09/03 A2987 RMK A01 T00880031  RH  068%=      5-min Rain = 0
KHE1 140059Z 20010KT 09/03 A2987 RMK A01 T00880031  RH  067%=      5-min Rain = 0
KHE1 140100Z 20010KT 09/03 A2987 RMK A01 T00880031  RH  067%=      5-min Rain = 0
KHE1 140101Z 20010KT 09/03 A2987 RMK A01 T00880031  RH  067%=      5-min Rain = 0
KHE1 140102Z 20009KT 09/03 A2987 RMK A01 T00880031  RH  068%=      5-min Rain = 0
KHE1 140103Z 20010KT 09/03 A2987 RMK A01 T00860031  RH  068%=      5-min Rain = 0
KHE1 140104Z 20010KT 09/03 A2987 RMK A01 T00860031  RH  068%=      5-min Rain = 0
KHE1 140105Z 20009KT 09/03 A2987 RMK A01 T00860031  RH  068%=      5-min Rain = 0
KHE1 140106Z 20010KT 09/03 A2987 RMK A01 T00860031  RH  068%=      5-min Rain = 0
KHE1 140107Z 20009KT 09/03 A2987 RMK A01 T00870031  RH  068%=      5-min Rain = 0
KHE1 140108Z 20009KT 09/03 A2987 RMK A01 T00870031  RH  068%=      5-min Rain = 0
KHE1 140109Z 20009KT 09/03 A2987 RMK A01 T00870030  RH  068%=      5-min Rain = 0
KHE1 140110Z 20010KT 09/03 A2987 RMK A01 T00870030  RH  068%=      5-min Rain = 0
KHE1 140111Z 20009KT 09/03 A2987 RMK A01 T00860030  RH  068%=      5-min Rain = 0
KHE1 140112Z 20009KT 09/03 A2987 RMK A01 T00860031  RH  068%=      5-min Rain = 0
KHE1 140113Z 20009KT 09/03 A2987 RMK A01 T00850031  RH  068%=      5-min Rain = 0
KHE1 140114Z 20009KT 09/03 A2987 RMK A01 T00850031  RH  069%=      5-min Rain = 0
KHE1 140115Z 20009KT 09/03 A2987 RMK A01 T00850030  RH  069%=      5-min Rain = 0
KHE1 140116Z 20009KT 09/03 A2987 RMK A01 T00850031  RH  069%=      5-min Rain = 0
KHE1 140117Z 20009KT 09/03 A2987 RMK A01 T00850031  RH  069%=      5-min Rain = 0
KHE1 140118Z 20009KT 08/03 A2987 RMK A01 T00840031  RH  069%=      5-min Rain = 0
KHE1 140119Z 20009KT 08/03 A2987 RMK A01 T00830031  RH  070%=      5-min Rain = 0
KHE1 140120Z 20009KT 08/03 A2987 RMK A01 T00830031  RH  070%=      5-min Rain = 0
KHE1 140121Z 20009KT 08/03 A2987 RMK A01 T00830031  RH  070%=      5-min Rain = 0
KHE1 140122Z 20009KT 08/03 A2987 RMK A01 T00830031  RH  070%=      5-min Rain = 0
KHE1 140123Z 20009KT 08/03 A2987 RMK A01 T00820031  RH  070%=      5-min Rain = 0
KHE1 140124Z 20008KT 08/03 A2987 RMK A01 T00820031  RH  070%=      5-min Rain = 0
KHE1 140125Z 20008KT 08/03 A2987 RMK A01 T00810031  RH  071%=      5-min Rain = 0
KHE1 140126Z 20008KT 08/03 A2987 RMK A01 T00810031  RH  071%=      5-min Rain = 0
KHE1 140127Z 20008KT 08/03 A2987 RMK A01 T00810031  RH  071%=      5-min Rain = 0
KHE1 140128Z 20008KT 08/03 A2987 RMK A01 T00800031  RH  071%=      5-min Rain = 0
KHE1 140129Z 20008KT 08/03 A2987 RMK A01 T00790031  RH  072%=      5-min Rain = 0
KHE1 140130Z 20008KT 08/03 A2987 RMK A01 T00780030  RH  072%=      5-min Rain = 0
KHE1 140131Z 20008KT 08/03 A2987 RMK A01 T00780031  RH  072%=      5-min Rain = 0
KHE1 140132Z 20008KT 08/03 A2987 RMK A01 T00770031  RH  072%=      5-min Rain = 0
KHE1 140133Z 20008KT 08/03 A2987 RMK A01 T00770030  RH  073%=      5-min Rain = 0
KHE1 140134Z 20009KT 08/03 A2987 RMK A01 T00760030  RH  073%=      5-min Rain = 0
KHE1 140135Z 20009KT 08/03 A2987 RMK A01 T00760030  RH  073%=      5-min Rain = 0
KHE1 140136Z 20009KT 08/03 A2987 RMK A01 T00750030  RH  073%=      5-min Rain = 0
KHE1 140137Z 20009KT 08/03 A2987 RMK A01 T00750030  RH  073%=      5-min Rain = 0
KHE1 140138Z 20009KT 07/03 A2987 RMK A01 T00740031  RH  074%=      5-min Rain = 0
KHE1 140139Z 20010KT 07/03 A2987 RMK A01 T00740031  RH  074%=      5-min Rain = 0
KHE1 140140Z 20010KT 07/03 A2987 RMK A01 T00740031  RH  074%=      5-min Rain = 0
KHE1 140141Z 20010KT 07/03 A2987 RMK A01 T00730031  RH  074%=      5-min Rain = 0
KHE1 140142Z 20010KT 07/03 A2987 RMK A01 T00740031  RH  074%=      5-min Rain = 0
KHE1 140143Z 21010KT 07/03 A2987 RMK A01 T00740031  RH  074%=      5-min Rain = 0
KHE1 140144Z 21010KT 07/03 A2987 RMK A01 T00740031  RH  074%=      5-min Rain = 0
KHE1 140145Z 21010KT 08/03 A2987 RMK A01 T00750031  RH  074%=      5-min Rain = 0
KHE1 140146Z 20010KT 07/03 A2987 RMK A01 T00740031  RH  074%=      5-min Rain = 0
KHE1 140147Z 20010KT 07/03 A2987 RMK A01 T00730030  RH  074%=      5-min Rain = 0
KHE1 140148Z 20010KT 07/03 A2986 RMK A01 T00730031  RH  074%=      5-min Rain = 0
KHE1 140149Z 20011KT 07/03 A2986 RMK A01 T00730031  RH  074%=      5-min Rain = 0
KHE1 140150Z 20011KT 07/03 A2986 RMK A01 T00730031  RH  074%=      5-min Rain = 0
KHE1 140151Z 20011KT 07/03 A2986 RMK A01 T00740031  RH  074%=      5-min Rain = 0
KHE1 140152Z 20011KT 07/03 A2986 RMK A01 T00740030  RH  074%=      5-min Rain = 0
KHE1 140153Z 20011KT 07/03 A2986 RMK A01 T00740030  RH  074%=      5-min Rain = 0
KHE1 140154Z 20011KT 07/03 A2986 RMK A01 T00740030  RH  074%=      5-min Rain = 0
KHE1 140155Z 20011KT 07/03 A2985 RMK A01 T00730030  RH  074%=      5-min Rain = 0
KHE1 140156Z 20011KT 07/03 A2985 RMK A01 T00740030  RH  073%=      5-min Rain = 0
KHE1 140157Z 20011KT 07/03 A2985 RMK A01 T00740030  RH  073%=      5-min Rain = 0
KHE1 140158Z 20012KT 07/03 A2985 RMK A01 T00740030  RH  073%=      5-min Rain = 0
KHE1 140159Z 20011KT 07/03 A2985 RMK A01 T00740029  RH  073%=      5-min Rain = 0
KHE1 140200Z 20011KT 08/03 A2985 RMK A01 T00750029  RH  073%=      5-min Rain = 0
KHE1 140201Z 20011KT 08/03 A2985 RMK A01 T00750029  RH  072%=      5-min Rain = 0
KHE1 140202Z 20011KT 08/03 A2985 RMK A01 T00760029  RH  072%=      5-min Rain = 0
KHE1 140203Z 20011KT 08/03 A2985 RMK A01 T00760029  RH  072%=      5-min Rain = 0
KHE1 140204Z 20011KT 08/03 A2985 RMK A01 T00770028  RH  071%=      5-min Rain = 0
KHE1 140205Z 20011KT 08/03 A2985 RMK A01 T00780028  RH  071%=      5-min Rain = 0
KHE1 140206Z 20011KT 08/03 A2985 RMK A01 T00790028  RH  070%=      5-min Rain = 0
KHE1 140207Z 20011KT 08/03 A2985 RMK A01 T00800028  RH  070%=      5-min Rain = 0
KHE1 140208Z 21011KT 08/03 A2986 RMK A01 T00800028  RH  070%=      5-min Rain = 0
KHE1 140209Z 20011KT 08/03 A2985 RMK A01 T00800028  RH  070%=      5-min Rain = 0
KHE1 140210Z 20011KT 08/03 A2985 RMK A01 T00810028  RH  069%=      5-min Rain = 0
KHE1 140211Z 20011KT 08/03 A2985 RMK A01 T00810028  RH  069%=      5-min Rain = 0
KHE1 140212Z 20012KT 08/03 A2985 RMK A01 T00810027  RH  069%=      5-min Rain = 0
KHE1 140213Z 20012KT 08/03 A2985 RMK A01 T00810027  RH  069%=      5-min Rain = 0
KHE1 140214Z 20012KT 08/03 A2985 RMK A01 T00810028  RH  069%=      5-min Rain = 0
KHE1 140215Z 20011KT 08/03 A2985 RMK A01 T00810028  RH  069%=      5-min Rain = 0
KHE1 140216Z 20011KT 08/03 A2985 RMK A01 T00800028  RH  069%=      5-min Rain = 0
KHE1 140217Z 20011KT 08/03 A2985 RMK A01 T00790028  RH  070%=      5-min Rain = 0
KHE1 140218Z 20011KT 08/03 A2985 RMK A01 T00790028  RH  070%=      5-min Rain = 0
KHE1 140219Z 21011KT 08/03 A2985 RMK A01 T00780027  RH  070%=      5-min Rain = 0
KHE1 140220Z 21011KT 08/03 A2985 RMK A01 T00780027  RH  070%=      5-min Rain = 0
KHE1 140221Z 21011KT 08/03 A2985 RMK A01 T00780027  RH  070%=      5-min Rain = 0
KHE1 140222Z 21011KT 08/03 A2985 RMK A01 T00780027  RH  070%=      5-min Rain = 0
KHE1 140223Z 21011KT 08/03 A2985 RMK A01 T00780027  RH  070%=      5-min Rain = 0
KHE1 140224Z 21011KT 08/03 A2985 RMK A01 T00780027  RH  070%=      5-min Rain = 0
KHE1 140225Z 21011KT 08/03 A2985 RMK A01 T00780027  RH  070%=      5-min Rain = 0
KHE1 140226Z 21011KT 08/03 A2985 RMK A01 T00780027  RH  070%=      5-min Rain = 0
KHE1 140227Z 21011KT 08/03 A2985 RMK A01 T00770027  RH  070%=      5-min Rain = 0
KHE1 140228Z 20011KT 08/03 A2985 RMK A01 T00770027  RH  070%=      5-min Rain = 0
KHE1 140229Z 20011KT 08/03 A2985 RMK A01 T00770026  RH  070%=      5-min Rain = 0
KHE1 140230Z 21012KT 08/03 A2985 RMK A01 T00770026  RH  070%=      5-min Rain = 0
KHE1 140231Z 21011KT 08/03 A2985 RMK A01 T00770026  RH  070%=      5-min Rain = 0
KHE1 140232Z 21011KT 08/03 A2985 RMK A01 T00770026  RH  070%=      5-min Rain = 0
KHE1 140233Z 21011KT 08/03 A2985 RMK A01 T00770025  RH  070%=      5-min Rain = 0
KHE1 140234Z 21012KT 08/03 A2985 RMK A01 T00770025  RH  070%=      5-min Rain = 0
KHE1 140235Z 21012KT 08/03 A2985 RMK A01 T00770025  RH  070%=      5-min Rain = 0
KHE1 140236Z 21011KT 08/03 A2985 RMK A01 T00780025  RH  070%=      5-min Rain = 0
KHE1 140237Z 21012KT 08/03 A2985 RMK A01 T00780025  RH  069%=      5-min Rain = 0
KHE1 140238Z 21011KT 08/03 A2985 RMK A01 T00780025  RH  069%=      5-min Rain = 0
KHE1 140239Z 21011KT 08/03 A2984 RMK A01 T00770025  RH  069%=      5-min Rain = 0
KHE1 140240Z 21012KT 08/03 A2984 RMK A01 T00770025  RH  070%=      5-min Rain = 0
KHE1 140241Z 21011KT 08/03 A2984 RMK A01 T00760025  RH  070%=      5-min Rain = 0
KHE1 140242Z 21012KT 08/03 A2984 RMK A01 T00760025  RH  070%=      5-min Rain = 0
KHE1 140243Z 21012KT 08/03 A2984 RMK A01 T00770025  RH  070%=      5-min Rain = 0
KHE1 140244Z 21012KT 08/02 A2984 RMK A01 T00770024  RH  069%=      5-min Rain = 0
KHE1 140245Z 21011KT 08/03 A2984 RMK A01 T00770025  RH  069%=      5-min Rain = 0
KHE1 140246Z 21012KT 08/02 A2984 RMK A01 T00760024  RH  070%=      5-min Rain = 0
KHE1 140247Z 21011KT 08/02 A2984 RMK A01 T00760024  RH  070%=      5-min Rain = 0
KHE1 140248Z 21011KT 08/02 A2984 RMK A01 T00760024  RH  069%=      5-min Rain = 0
KHE1 140249Z 21012KT 08/02 A2984 RMK A01 T00760024  RH  070%=      5-min Rain = 0
KHE1 140250Z 21011KT 07/02 A2984 RMK A01 T00740024  RH  070%=      5-min Rain = 0
KHE1 140251Z 21011KT 07/02 A2983 RMK A01 T00740024  RH  071%=      5-min Rain = 0
KHE1 140252Z 21011KT 07/02 A2983 RMK A01 T00740024  RH  071%=      5-min Rain = 0
KHE1 140253Z 21011KT 07/02 A2983 RMK A01 T00740024  RH  071%=      5-min Rain = 0
KHE1 140254Z 21012KT 07/02 A2983 RMK A01 T00740024  RH  071%=      5-min Rain = 0
KHE1 140255Z 21011KT 07/02 A2983 RMK A01 T00740024  RH  070%=      5-min Rain = 0
KHE1 140256Z 21012KT 07/02 A2983 RMK A01 T00740024  RH  071%=      5-min Rain = 0
KHE1 140257Z 21012KT 07/02 A2983 RMK A01 T00740024  RH  071%=      5-min Rain = 0
KHE1 140258Z 21012KT 07/02 A2983 RMK A01 T00730024  RH  071%=      5-min Rain = 0
KHE1 140259Z 21012KT 07/02 A2983 RMK A01 T00720024  RH  071%=      5-min Rain = 0
KHE1 140300Z 21012KT 07/02 A2983 RMK A01 T00720024  RH  071%=      5-min Rain = 0
KHE1 140301Z 21012KT 07/02 A2983 RMK A01 T00720024  RH  071%=      5-min Rain = 0
KHE1 140302Z 21012KT 07/02 A2983 RMK A01 T00720024  RH  071%=      5-min Rain = 0
KHE1 140303Z 21012KT 07/02 A2983 RMK A01 T00720023  RH  071%=      5-min Rain = 0
KHE1 140304Z 21012KT 07/02 A2983 RMK A01 T00720023  RH  071%=      5-min Rain = 0
KHE1 140305Z 20012KT 07/02 A2983 RMK A01 T00730023  RH  071%=      5-min Rain = 0
KHE1 140306Z 20012KT 07/02 A2983 RMK A01 T00720023  RH  071%=      5-min Rain = 0
KHE1 140307Z 21011KT 07/02 A2983 RMK A01 T00720023  RH  071%=      5-min Rain = 0
KHE1 140308Z 21011KT 07/02 A2983 RMK A01 T00720023  RH  071%=      5-min Rain = 0
KHE1 140309Z 20012KT 07/02 A2983 RMK A01 T00720023  RH  071%=      5-min Rain = 0
KHE1 140310Z 21012KT 07/02 A2983 RMK A01 T00720023  RH  071%=      5-min Rain = 0
KHE1 140311Z 20011KT 07/02 A2982 RMK A01 T00720023  RH  071%=      5-min Rain = 0
KHE1 140312Z 21012KT 07/02 A2982 RMK A01 T00710023  RH  071%=      5-min Rain = 0
KHE1 140313Z 21012KT 07/02 A2982 RMK A01 T00710022  RH  071%=      5-min Rain = 0
KHE1 140314Z 21011KT 07/02 A2982 RMK A01 T00710022  RH  071%=      5-min Rain = 0
KHE1 140315Z 21011KT 07/02 A2982 RMK A01 T00710022  RH  071%=      5-min Rain = 0
KHE1 140316Z 21011KT 07/02 A2982 RMK A01 T00700022  RH  072%=      5-min Rain = 0
KHE1 140317Z 21011KT 07/02 A2982 RMK A01 T00690022  RH  072%=      5-min Rain = 0
KHE1 140318Z 21012KT 07/02 A2982 RMK A01 T00690022  RH  072%=      5-min Rain = 0
KHE1 140319Z 21011KT 07/02 A2982 RMK A01 T00700022  RH  072%=      5-min Rain = 0
KHE1 140320Z 21011KT 07/02 A2982 RMK A01 T00700022  RH  071%=      5-min Rain = 0
KHE1 140321Z 20012KT 07/02 A2982 RMK A01 T00700022  RH  071%=      5-min Rain = 0
KHE1 140322Z 21012KT 07/02 A2982 RMK A01 T00700022  RH  071%=      5-min Rain = 0
KHE1 140323Z 21012KT 07/02 A2982 RMK A01 T00700022  RH  071%=      5-min Rain = 0
KHE1 140324Z 21011KT 07/02 A2982 RMK A01 T00700021  RH  071%=      5-min Rain = 0
KHE1 140325Z 21012KT 07/02 A2982 RMK A01 T00690021  RH  071%=      5-min Rain = 0
KHE1 140326Z 21012KT 07/02 A2982 RMK A01 T00690021  RH  072%=      5-min Rain = 0
KHE1 140327Z 21011KT 07/02 A2982 RMK A01 T00690021  RH  072%=      5-min Rain = 0
KHE1 140328Z 20012KT 07/02 A2982 RMK A01 T00680021  RH  072%=      5-min Rain = 0
KHE1 140329Z 20012KT 07/02 A2982 RMK A01 T00680021  RH  072%=      5-min Rain = 0
KHE1 140330Z 21012KT 07/02 A2982 RMK A01 T00670021  RH  072%=      5-min Rain = 0
KHE1 140331Z 21013KT 07/02 A2982 RMK A01 T00680021  RH  072%=      5-min Rain = 0
KHE1 140332Z 21012KT 07/02 A2982 RMK A01 T00680021  RH  072%=      5-min Rain = 0
KHE1 140333Z 21012KT 07/02 A2982 RMK A01 T00670021  RH  072%=      5-min Rain = 0
KHE1 140334Z 21012KT 07/02 A2982 RMK A01 T00670021  RH  072%=      5-min Rain = 0
KHE1 140335Z 21011KT 07/02 A2981 RMK A01 T00670021  RH  072%=      5-min Rain = 0
KHE1 140336Z 21012KT 07/02 A2981 RMK A01 T00670021  RH  072%=      5-min Rain = 0
KHE1 140337Z 20012KT 07/02 A2981 RMK A01 T00670021  RH  072%=      5-min Rain = 0
KHE1 140338Z 21012KT 07/02 A2981 RMK A01 T00670020  RH  072%=      5-min Rain = 0
KHE1 140339Z 20012KT 07/02 A2981 RMK A01 T00660020  RH  072%=      5-min Rain = 0
KHE1 140340Z 20013KT 07/02 A2981 RMK A01 T00660019  RH  072%=      5-min Rain = 0
KHE1 140341Z 20012KT 07/02 A2981 RMK A01 T00670019  RH  072%=      5-min Rain = 0
KHE1 140342Z 20012KT 07/02 A2981 RMK A01 T00670020  RH  072%=      5-min Rain = 0
KHE1 140343Z 21013KT 07/02 A2981 RMK A01 T00670019  RH  072%=      5-min Rain = 0
KHE1 140344Z 21013KT 07/02 A2981 RMK A01 T00670019  RH  072%=      5-min Rain = 0
KHE1 140345Z 20012KT 07/02 A2981 RMK A01 T00670019  RH  071%=      5-min Rain = 0
KHE1 140346Z 21013KT 07/02 A2981 RMK A01 T00670019  RH  071%=      5-min Rain = 0
KHE1 140347Z 21013KT 07/02 A2981 RMK A01 T00670019  RH  071%=      5-min Rain = 0
KHE1 140348Z 21013KT 07/02 A2981 RMK A01 T00670019  RH  071%=      5-min Rain = 0
KHE1 140349Z 20012KT 07/02 A2981 RMK A01 T00670019  RH  071%=      5-min Rain = 0
KHE1 140350Z 21013KT 07/02 A2981 RMK A01 T00670019  RH  072%=      5-min Rain = 0
KHE1 140351Z 20012KT 07/02 A2981 RMK A01 T00670019  RH  072%=      5-min Rain = 0
KHE1 140352Z 21012KT 07/02 A2981 RMK A01 T00660019  RH  072%=      5-min Rain = 0
KHE1 140353Z 21012KT 07/02 A2981 RMK A01 T00670019  RH  072%=      5-min Rain = 0
KHE1 140354Z 21012KT 07/02 A2981 RMK A01 T00650019  RH  072%=      5-min Rain = 0
KHE1 140355Z 21012KT 07/02 A2981 RMK A01 T00650019  RH  072%=      5-min Rain = 0
KHE1 140356Z 21012KT 07/02 A2981 RMK A01 T00650019  RH  072%=      5-min Rain = 0
KHE1 140357Z 20012KT 07/02 A2981 RMK A01 T00650018  RH  072%=      5-min Rain = 0
KHE1 140358Z 21012KT 07/02 A2981 RMK A01 T00650018  RH  072%=      5-min Rain = 0
KHE1 140359Z 20012KT 06/02 A2981 RMK A01 T00640018  RH  073%=      5-min Rain = 0
KHE1 140400Z 21012KT 06/02 A2981 RMK A01 T00630019  RH  073%=      5-min Rain = 0
KHE1 140401Z 20012KT 06/02 A2981 RMK A01 T00630019  RH  073%=      5-min Rain = 0
KHE1 140402Z 21012KT 06/02 A2981 RMK A01 T00620019  RH  074%=      5-min Rain = 0
KHE1 140403Z 21011KT 06/02 A2981 RMK A01 T00610019  RH  074%=      5-min Rain = 0
KHE1 140404Z 21012KT 06/02 A2981 RMK A01 T00610019  RH  074%=      5-min Rain = 0
KHE1 140405Z 21012KT 06/02 A2981 RMK A01 T00610018  RH  074%=      5-min Rain = 0
KHE1 140406Z 21012KT 06/02 A2981 RMK A01 T00610018  RH  074%=      5-min Rain = 0
KHE1 140407Z 21011KT 06/02 A2981 RMK A01 T00610018  RH  074%=      5-min Rain = 0
KHE1 140408Z 21011KT 06/02 A2981 RMK A01 T00600018  RH  075%=      5-min Rain = 0
KHE1 140409Z 21011KT 06/02 A2981 RMK A01 T00590018  RH  075%=      5-min Rain = 0
KHE1 140410Z 21011KT 06/02 A2981 RMK A01 T00590018  RH  075%=      5-min Rain = 0
KHE1 140411Z 21012KT 06/02 A2981 RMK A01 T00580018  RH  075%=      5-min Rain = 0
KHE1 140412Z 21012KT 06/02 A2981 RMK A01 T00580018  RH  076%=      5-min Rain = 0
KHE1 140413Z 21011KT 06/02 A2981 RMK A01 T00570018  RH  076%=      5-min Rain = 0
KHE1 140414Z 21011KT 06/02 A2981 RMK A01 T00570018  RH  076%=      5-min Rain = 0
KHE1 140415Z 21011KT 06/02 A2981 RMK A01 T00570018  RH  076%=      5-min Rain = 0
KHE1 140416Z 21011KT 06/02 A2981 RMK A01 T00560018  RH  076%=      5-min Rain = 0
KHE1 140417Z 21011KT 06/02 A2981 RMK A01 T00560018  RH  076%=      5-min Rain = 0
KHE1 140418Z 21011KT 06/02 A2981 RMK A01 T00550018  RH  077%=      5-min Rain = 0
KHE1 140419Z 21010KT 06/02 A2981 RMK A01 T00550018  RH  077%=      5-min Rain = 0
KHE1 140420Z 21010KT 05/02 A2981 RMK A01 T00540017  RH  077%=      5-min Rain = 0
KHE1 140421Z 21009KT 05/02 A2981 RMK A01 T00540018  RH  078%=      5-min Rain = 0
KHE1 140422Z 21009KT 05/02 A2981 RMK A01 T00540017  RH  077%=      5-min Rain = 0
KHE1 140423Z 21009KT 05/02 A2981 RMK A01 T00530017  RH  078%=      5-min Rain = 0
KHE1 140424Z 21009KT 05/02 A2981 RMK A01 T00530017  RH  078%=      5-min Rain = 0
KHE1 140425Z 21009KT 05/02 A2981 RMK A01 T00520017  RH  078%=      5-min Rain = 0
KHE1 140426Z 21008KT 05/02 A2981 RMK A01 T00510017  RH  078%=      5-min Rain = 0
KHE1 140427Z 21009KT 05/02 A2981 RMK A01 T00510017  RH  079%=      5-min Rain = 0
KHE1 140428Z 21009KT 05/02 A2981 RMK A01 T00500017  RH  079%=      5-min Rain = 0
KHE1 140429Z 22010KT 05/02 A2981 RMK A01 T00490017  RH  080%=      5-min Rain = 0
KHE1 140430Z 22010KT 05/02 A2981 RMK A01 T00490017  RH  080%=      5-min Rain = 0
KHE1 140431Z 22010KT 05/02 A2981 RMK A01 T00480017  RH  080%=      5-min Rain = 0
KHE1 140432Z 22011KT 05/02 A2981 RMK A01 T00470017  RH  081%=      5-min Rain = 0
KHE1 140433Z 22011KT 05/02 A2981 RMK A01 T00470017  RH  081%=      5-min Rain = 0
KHE1 140434Z 21011KT 05/02 A2981 RMK A01 T00470017  RH  081%=      5-min Rain = 0
KHE1 140435Z 21011KT 05/02 A2981 RMK A01 T00470017  RH  081%=      5-min Rain = 0
KHE1 140436Z 21011KT 05/02 A2981 RMK A01 T00480017  RH  081%=      5-min Rain = 0
KHE1 140437Z 21010KT 05/02 A2981 RMK A01 T00480017  RH  081%=      5-min Rain = 0
KHE1 140438Z 21010KT 05/02 A298 RMK A01 T00480017  RH  080%=      5-min Rain = 0
KHE1 140439Z 21010KT 05/02 A298 RMK A01 T00480017  RH  080%=      5-min Rain = 0
KHE1 140440Z 21010KT 05/02 A298 RMK A01 T00480017  RH  081%=      5-min Rain = 0
KHE1 140441Z 22010KT 05/02 A298 RMK A01 T00480017  RH  081%=      5-min Rain = 0
KHE1 140442Z 22010KT 05/02 A298 RMK A01 T00470017  RH  081%=      5-min Rain = 0
KHE1 140443Z 22010KT 05/02 A298 RMK A01 T00480017  RH  081%=      5-min Rain = 0
KHE1 140444Z 22010KT 05/02 A298 RMK A01 T00470017  RH  081%=      5-min Rain = 0
KHE1 140445Z 22010KT 05/02 A298 RMK A01 T00470017  RH  081%=      5-min Rain = 0
KHE1 140446Z 22009KT 05/02 A298 RMK A01 T00460016  RH  081%=      5-min Rain = 0
KHE1 140447Z 22009KT 05/02 A298 RMK A01 T00460016  RH  081%=      5-min Rain = 0
KHE1 140448Z 21009KT 05/02 A298 RMK A01 T00450016  RH  082%=      5-min Rain = 0
KHE1 140449Z 22009KT 05/02 A298 RMK A01 T00450016  RH  082%=      5-min Rain = 0
KHE1 140450Z 21009KT 05/02 A298 RMK A01 T00450016  RH  082%=      5-min Rain = 0
KHE1 140451Z 21010KT 05/02 A298 RMK A01 T00450016  RH  082%=      5-min Rain = 0
KHE1 140452Z 21009KT 05/02 A298 RMK A01 T00450016  RH  082%=      5-min Rain = 0
KHE1 140453Z 21009KT 04/02 A298 RMK A01 T00440016  RH  082%=      5-min Rain = 0
KHE1 140454Z 21009KT 04/02 A298 RMK A01 T00440016  RH  082%=      5-min Rain = 0
KHE1 140455Z 21010KT 04/02 A298 RMK A01 T00430016  RH  082%=      5-min Rain = 0
KHE1 140456Z 21010KT 04/02 A298 RMK A01 T00430016  RH  082%=      5-min Rain = 0
KHE1 140457Z 21010KT 04/02 A298 RMK A01 T00420016  RH  083%=      5-min Rain = 0
KHE1 140458Z 21010KT 04/02 A298 RMK A01 T00420015  RH  083%=      5-min Rain = 0
KHE1 140459Z 22010KT 04/02 A2979 RMK A01 T00420015  RH  083%=      5-min Rain = 0
KHE1 140500Z 21010KT 04/02 A2979 RMK A01 T00410015  RH  083%=      5-min Rain = 0
KHE1 140501Z 21010KT 04/02 A2979 RMK A01 T00420015  RH  083%=      5-min Rain = 0
KHE1 140502Z 22010KT 04/02 A2979 RMK A01 T00420015  RH  083%=      5-min Rain = 0
KHE1 140503Z 22010KT 04/02 A2979 RMK A01 T00410015  RH  083%=      5-min Rain = 0
KHE1 140504Z 21010KT 04/02 A2979 RMK A01 T00410015  RH  083%=      5-min Rain = 0
KHE1 140505Z 21011KT 04/02 A2979 RMK A01 T00410015  RH  083%=      5-min Rain = 0
KHE1 140506Z 22011KT 04/01 A2979 RMK A01 T00410014  RH  083%=      5-min Rain = 0
KHE1 140507Z 22011KT 04/01 A2979 RMK A01 T00410014  RH  083%=      5-min Rain = 0
KHE1 140508Z 22012KT 04/01 A2979 RMK A01 T00410014  RH  083%=      5-min Rain = 0
KHE1 140509Z 21012KT 04/01 A2979 RMK A01 T00410014  RH  083%=      5-min Rain = 0
KHE1 140510Z 21011KT 04/01 A2979 RMK A01 T00410014  RH  083%=      5-min Rain = 0
KHE1 140511Z 21012KT 04/01 A2979 RMK A01 T00410014  RH  083%=      5-min Rain = 0
KHE1 140512Z 21012KT 04/01 A2979 RMK A01 T00400014  RH  083%=      5-min Rain = 0
KHE1 140513Z 22012KT 04/01 A2979 RMK A01 T00400014  RH  083%=      5-min Rain = 0
KHE1 140514Z 22012KT 04/01 A2979 RMK A01 T00400014  RH  083%=      5-min Rain = 0
KHE1 140515Z 22012KT 04/01 A2979 RMK A01 T00390014  RH  084%=      5-min Rain = 0
KHE1 140516Z 22012KT 04/01 A2979 RMK A01 T00390014  RH  084%=      5-min Rain = 0
KHE1 140517Z 23012KT 04/01 A2979 RMK A01 T00390014  RH  084%=      5-min Rain = 0
KHE1 140518Z 23012KT 04/01 A2979 RMK A01 T00390013  RH  084%=      5-min Rain = 0
KHE1 140519Z 23012KT 04/01 A2979 RMK A01 T00390013  RH  083%=      5-min Rain = 0
KHE1 140520Z 23012KT 04/01 A2979 RMK A01 T00400013  RH  083%=      5-min Rain = 0
KHE1 140521Z 23012KT 04/01 A298 RMK A01 T00410013  RH  082%=      5-min Rain = 0
KHE1 140522Z 23012KT 04/01 A298 RMK A01 T00410013  RH  082%=      5-min Rain = 0
KHE1 140523Z 23012KT 04/01 A2979 RMK A01 T00420013  RH  081%=      5-min Rain = 0
KHE1 140524Z 23012KT 04/01 A2979 RMK A01 T00430013  RH  080%=      5-min Rain = 0
KHE1 140525Z 23011KT 05/01 A2979 RMK A01 T00450013  RH  080%=      5-min Rain = 0
KHE1 140526Z 23012KT 05/01 A2979 RMK A01 T00470013  RH  078%=      5-min Rain = 0
KHE1 140527Z 23011KT 05/01 A2979 RMK A01 T00510013  RH  077%=      5-min Rain = 0
KHE1 140528Z 23011KT 05/01 A2979 RMK A01 T00510012  RH  076%=      5-min Rain = 0
KHE1 140529Z 22011KT 05/01 A2979 RMK A01 T00490012  RH  077%=      5-min Rain = 0
KHE1 140530Z 22011KT 05/01 A2979 RMK A01 T00470012  RH  078%=      5-min Rain = 0
KHE1 140531Z 22010KT 05/01 A2979 RMK A01 T00460011  RH  078%=      5-min Rain = 0
KHE1 140532Z 22010KT 05/01 A2979 RMK A01 T00450012  RH  079%=      5-min Rain = 0
KHE1 140533Z 22010KT 05/01 A2979 RMK A01 T00450012  RH  079%=      5-min Rain = 0
KHE1 140534Z 22010KT 05/01 A2979 RMK A01 T00450011  RH  078%=      5-min Rain = 0
KHE1 140535Z 22010KT 05/01 A2979 RMK A01 T00460012  RH  079%=      5-min Rain = 0
KHE1 140536Z 22010KT 05/01 A2979 RMK A01 T00450012  RH  079%=      5-min Rain = 0
KHE1 140537Z 21010KT 05/01 A2979 RMK A01 T00450011  RH  079%=      5-min Rain = 0
KHE1 140538Z 21010KT 05/01 A2979 RMK A01 T00450011  RH  079%=      5-min Rain = 0
KHE1 140539Z 21010KT 05/01 A2979 RMK A01 T00450012  RH  079%=      5-min Rain = 0
KHE1 140540Z 22010KT 05/01 A2979 RMK A01 T00450012  RH  079%=      5-min Rain = 0
KHE1 140541Z 21009KT 04/01 A2979 RMK A01 T00440012  RH  079%=      5-min Rain = 0
KHE1 140542Z 21009KT 04/01 A2979 RMK A01 T00440011  RH  079%=      5-min Rain = 0
KHE1 140543Z 21010KT 04/01 A2979 RMK A01 T00430011  RH  080%=      5-min Rain = 0
KHE1 140544Z 21009KT 04/01 A2979 RMK A01 T00430011  RH  080%=      5-min Rain = 0
KHE1 140545Z 21009KT 04/01 A2978 RMK A01 T00420011  RH  080%=      5-min Rain = 0
KHE1 140546Z 22009KT 04/01 A2978 RMK A01 T00410011  RH  081%=      5-min Rain = 0
KHE1 140547Z 22009KT 04/01 A2978 RMK A01 T00400011  RH  081%=      5-min Rain = 0
KHE1 140548Z 22009KT 04/01 A2978 RMK A01 T00400011  RH  081%=      5-min Rain = 0
KHE1 140549Z 21009KT 04/01 A2978 RMK A01 T00400011  RH  081%=      5-min Rain = 0
KHE1 140550Z 21009KT 04/01 A2978 RMK A01 T00400011  RH  082%=      5-min Rain = 0
KHE1 140551Z 22009KT 04/01 A2978 RMK A01 T00400011  RH  082%=      5-min Rain = 0
KHE1 140552Z 22009KT 04/01 A2978 RMK A01 T00400011  RH  081%=      5-min Rain = 0
KHE1 140553Z 21009KT 04/01 A2978 RMK A01 T00400010  RH  081%=      5-min Rain = 0
KHE1 140554Z 21009KT 04/01 A2978 RMK A01 T00400010  RH  081%=      5-min Rain = 0
KHE1 140555Z 21008KT 04/01 A2978 RMK A01 T00400010  RH  081%=      5-min Rain = 0
KHE1 140556Z 22009KT 04/01 A2978 RMK A01 T00400010  RH  081%=      5-min Rain = 0
KHE1 140557Z 22009KT 04/01 A2978 RMK A01 T00400010  RH  081%=      5-min Rain = 0
KHE1 140558Z 22009KT 04/01 A2978 RMK A01 T00400010  RH  081%=      5-min Rain = 0
KHE1 140559Z 22010KT 04/01 A2978 RMK A01 T00400010  RH  081%=      5-min Rain = 0

Page generated in 0.1166 seconds.